Time,TemperatureF,DewpointF,PressureIn,WindDirection,WindDirectionDegrees,WindSpeedMPH,WindSpeedGustMPH,Humidity,HourlyPrecipIn,Conditions,Clouds,dailyrainin,SoftwareType,DateUTC
2013-05-10 00:01:00,66.4,59.3,29.89,NNW,346,0.0,0.0,78,0.00,,,0.00,Wunderground v.1.15,2013-05-10 04:01:00,
2013-05-10 00:02:00,66.5,59.4,29.89,NNW,346,0.0,0.0,78,0.00,,,0.00,Wunderground v.1.15,2013-05-10 04:02:00,
2013-05-10 00:05:00,66.6,59.5,29.89,NNW,346,0.0,0.0,78,0.00,,,0.00,Wunderground v.1.15,2013-05-10 04:05:00,
2013-05-10 00:06:00,66.6,59.5,29.89,NNW,346,0.0,0.0,78,0.00,,,0.00,Wunderground v.1.15,2013-05-10 04:06:00,
2013-05-10 00:11:00,66.7,59.6,29.89,NNW,345,0.0,0.0,78,0.00,,,0.00,Wunderground v.1.15,2013-05-10 04:11:00,
2013-05-10 00:12:00,66.7,59.6,29.89,NNW,345,0.0,0.0,78,0.00,,,0.00,Wunderground v.1.15,2013-05-10 04:12:00,
2013-05-10 00:13:00,66.7,59.6,29.89,NNW,345,0.0,0.0,78,0.00,,,0.00,Wunderground v.1.15,2013-05-10 04:13:00,
2013-05-10 00:15:00,66.8,59.7,29.89,NNW,345,0.0,0.0,78,0.00,,,0.00,Wunderground v.1.15,2013-05-10 04:15:00,
2013-05-10 00:16:00,66.8,59.7,29.89,NNW,345,0.0,0.0,78,0.00,,,0.00,Wunderground v.1.15,2013-05-10 04:16:00,
2013-05-10 00:18:00,66.8,59.7,29.89,NNW,345,0.0,0.0,78,0.00,,,0.00,Wunderground v.1.15,2013-05-10 04:18:00,
2013-05-10 00:19:00,66.8,59.7,29.89,NNW,345,0.0,0.0,78,0.00,,,0.00,Wunderground v.1.15,2013-05-10 04:19:00,
2013-05-10 00:20:00,66.8,59.7,29.89,NNW,345,0.0,0.0,78,0.00,,,0.00,Wunderground v.1.15,2013-05-10 04:20:00,
2013-05-10 00:23:00,66.8,59.7,29.89,NNW,345,0.0,0.0,78,0.00,,,0.00,Wunderground v.1.15,2013-05-10 04:23:00,
2013-05-10 00:25:00,66.8,59.7,29.89,NW,319,3.0,3.0,78,0.00,,,0.00,Wunderground v.1.15,2013-05-10 04:25:00,
2013-05-10 00:28:00,66.8,59.7,29.89,WNW,303,1.0,3.0,78,0.00,,,0.00,Wunderground v.1.15,2013-05-10 04:28:00,
2013-05-10 00:29:00,66.8,59.7,29.89,WNW,302,0.0,3.0,78,0.00,,,0.00,Wunderground v.1.15,2013-05-10 04:29:00,
2013-05-10 00:32:00,66.9,59.8,29.89,SSW,200,0.0,0.0,78,0.00,,,0.00,Wunderground v.1.15,2013-05-10 04:32:00,
2013-05-10 00:34:00,66.9,59.8,29.89,SSW,199,0.0,0.0,78,0.00,,,0.00,Wunderground v.1.15,2013-05-10 04:34:00,
2013-05-10 00:35:00,66.9,59.8,29.89,SSW,199,0.0,0.0,78,0.00,,,0.00,Wunderground v.1.15,2013-05-10 04:35:00,
2013-05-10 00:37:00,66.9,59.8,29.89,SSW,199,0.0,0.0,78,0.00,,,0.00,Wunderground v.1.15,2013-05-10 04:37:00,
2013-05-10 00:38:00,66.9,59.8,29.89,SSW,199,0.0,0.0,78,0.00,,,0.00,Wunderground v.1.15,2013-05-10 04:38:00,
2013-05-10 00:39:00,66.9,59.8,29.89,SSW,199,0.0,0.0,78,0.00,,,0.00,Wunderground v.1.15,2013-05-10 04:39:00,
2013-05-10 00:41:00,66.8,59.7,29.89,SSW,199,0.0,0.0,78,0.00,,,0.00,Wunderground v.1.15,2013-05-10 04:41:00,
2013-05-10 00:43:00,66.8,59.7,29.89,SSW,199,0.0,0.0,78,0.00,,,0.00,Wunderground v.1.15,2013-05-10 04:43:00,
2013-05-10 00:45:00,66.7,59.6,29.89,SSW,199,0.0,0.0,78,0.00,,,0.00,Wunderground v.1.15,2013-05-10 04:45:00,
2013-05-10 00:46:00,66.7,59.6,29.89,SSW,197,0.0,0.0,78,0.00,,,0.00,Wunderground v.1.15,2013-05-10 04:46:00,
2013-05-10 00:47:00,66.8,59.7,29.89,SSE,152,0.0,0.0,78,0.00,,,0.00,Wunderground v.1.15,2013-05-10 04:47:00,
2013-05-10 00:51:00,66.8,59.7,29.89,South,188,0.0,0.0,78,0.00,,,0.00,Wunderground v.1.15,2013-05-10 04:51:00,
2013-05-10 00:52:00,66.8,59.7,29.89,South,189,0.0,0.0,78,0.00,,,0.00,Wunderground v.1.15,2013-05-10 04:52:00,
2013-05-10 00:54:00,66.8,59.7,29.89,South,190,0.0,0.0,78,0.00,,,0.00,Wunderground v.1.15,2013-05-10 04:54:00,
2013-05-10 00:56:00,66.8,59.7,29.89,South,190,0.0,0.0,78,0.00,,,0.00,Wunderground v.1.15,2013-05-10 04:56:00,
2013-05-10 00:59:00,66.7,59.6,29.89,South,187,0.0,0.0,78,0.00,,,0.00,Wunderground v.1.15,2013-05-10 04:59:00,
2013-05-10 01:01:00,66.7,59.6,29.89,South,187,2.0,2.0,78,0.00,,,0.00,Wunderground v.1.15,2013-05-10 05:01:00,
2013-05-10 01:03:00,66.7,59.6,29.89,SSW,202,0.0,2.0,78,0.00,,,0.00,Wunderground v.1.15,2013-05-10 05:03:00,
2013-05-10 01:06:00,66.7,59.6,29.89,SSW,203,1.0,2.0,78,0.00,,,0.00,Wunderground v.1.15,2013-05-10 05:06:00,
2013-05-10 01:07:00,66.7,59.6,29.89,SSW,203,0.0,2.0,78,0.00,,,0.00,Wunderground v.1.15,2013-05-10 05:07:00,
2013-05-10 01:09:00,66.8,59.7,29.89,South,188,0.0,2.0,78,0.00,,,0.00,Wunderground v.1.15,2013-05-10 05:09:00,
2013-05-10 01:11:00,66.8,59.7,29.89,SSW,196,0.0,0.0,78,0.00,,,0.00,Wunderground v.1.15,2013-05-10 05:11:00,
2013-05-10 01:14:00,66.7,59.6,29.89,SSW,194,0.0,0.0,78,0.00,,,0.00,Wunderground v.1.15,2013-05-10 05:14:00,
2013-05-10 01:15:00,66.7,59.6,29.89,SSW,194,0.0,0.0,78,0.00,,,0.00,Wunderground v.1.15,2013-05-10 05:15:00,
2013-05-10 01:16:00,66.7,59.6,29.90,SSW,194,0.0,0.0,78,0.00,,,0.00,Wunderground v.1.15,2013-05-10 05:16:00,
2013-05-10 01:17:00,66.7,59.6,29.89,SSW,194,0.0,0.0,78,0.00,,,0.00,Wunderground v.1.15,2013-05-10 05:17:00,
2013-05-10 01:21:00,66.8,59.7,29.90,South,175,0.0,0.0,78,0.00,,,0.00,Wunderground v.1.15,2013-05-10 05:21:00,
2013-05-10 01:22:00,66.8,59.7,29.90,South,175,0.0,0.0,78,0.00,,,0.00,Wunderground v.1.15,2013-05-10 05:22:00,
2013-05-10 01:23:00,66.8,59.7,29.90,South,186,0.0,1.0,78,0.00,,,0.00,Wunderground v.1.15,2013-05-10 05:23:00,
2013-05-10 01:24:00,66.8,59.7,29.90,South,186,0.0,1.0,78,0.00,,,0.00,Wunderground v.1.15,2013-05-10 05:24:00,
2013-05-10 01:27:00,66.9,59.5,29.90,SSE,164,0.0,2.0,77,0.00,,,0.00,Wunderground v.1.15,2013-05-10 05:27:00,
2013-05-10 01:28:00,66.9,59.5,29.89,SSW,203,3.0,3.0,77,0.00,,,0.00,Wunderground v.1.15,2013-05-10 05:28:00,
2013-05-10 01:29:00,66.9,59.5,29.89,SSW,213,2.0,3.0,77,0.00,,,0.00,Wunderground v.1.15,2013-05-10 05:29:00,
2013-05-10 01:32:00,67.0,59.5,29.89,SW,221,0.0,4.0,77,0.00,,,0.00,Wunderground v.1.15,2013-05-10 05:32:00,
2013-05-10 01:33:00,67.0,59.5,29.89,SW,221,0.0,4.0,77,0.00,,,0.00,Wunderground v.1.15,2013-05-10 05:33:00,
2013-05-10 01:35:00,67.0,59.5,29.89,South,183,2.0,4.0,77,0.00,,,0.00,Wunderground v.1.15,2013-05-10 05:35:00,
2013-05-10 01:37:00,67.0,59.5,29.89,South,169,1.0,4.0,77,0.00,,,0.00,Wunderground v.1.15,2013-05-10 05:37:00,
2013-05-10 01:39:00,67.0,59.5,29.89,South,176,0.0,4.0,77,0.00,,,0.00,Wunderground v.1.15,2013-05-10 05:39:00,
2013-05-10 01:40:00,67.0,59.5,29.89,South,180,0.0,1.0,77,0.00,,,0.00,Wunderground v.1.15,2013-05-10 05:40:00,
2013-05-10 01:44:00,66.9,59.5,29.89,South,183,0.0,5.0,77,0.00,,,0.00,Wunderground v.1.15,2013-05-10 05:44:00,
2013-05-10 01:45:00,67.0,59.5,29.89,SSW,197,1.0,5.0,77,0.00,,,0.00,Wunderground v.1.15,2013-05-10 05:45:00,
2013-05-10 01:46:00,67.0,59.5,29.89,SSW,200,0.0,5.0,77,0.00,,,0.00,Wunderground v.1.15,2013-05-10 05:46:00,
2013-05-10 01:49:00,66.9,59.5,29.89,South,186,0.0,5.0,77,0.00,,,0.00,Wunderground v.1.15,2013-05-10 05:49:00,
2013-05-10 01:50:00,66.8,59.4,29.89,SSW,198,3.0,3.0,77,0.00,,,0.00,Wunderground v.1.15,2013-05-10 05:50:00,
2013-05-10 01:51:00,66.8,59.4,29.89,South,187,0.0,3.0,77,0.00,,,0.00,Wunderground v.1.15,2013-05-10 05:51:00,
2013-05-10 01:52:00,66.8,59.4,29.88,South,188,0.0,3.0,77,0.00,,,0.00,Wunderground v.1.15,2013-05-10 05:52:00,
2013-05-10 01:53:00,66.8,59.4,29.88,South,186,2.0,3.0,77,0.00,,,0.00,Wunderground v.1.15,2013-05-10 05:53:00,
2013-05-10 01:57:00,66.7,59.3,29.88,South,189,3.0,3.0,77,0.00,,,0.00,Wunderground v.1.15,2013-05-10 05:57:00,
2013-05-10 02:00:00,66.6,59.2,29.88,South,189,3.0,3.0,77,0.00,,,0.00,Wunderground v.1.15,2013-05-10 06:00:00,
2013-05-10 02:01:00,66.6,59.5,29.88,SSW,204,5.0,5.0,78,0.00,,,0.00,Wunderground v.1.15,2013-05-10 06:01:00,
2013-05-10 02:02:00,66.7,59.3,29.88,SSW,206,2.0,7.0,77,0.00,,,0.00,Wunderground v.1.15,2013-05-10 06:02:00,
2013-05-10 02:05:00,66.7,59.3,29.89,South,184,7.0,9.0,77,0.00,,,0.00,Wunderground v.1.15,2013-05-10 06:05:00,
2013-05-10 02:06:00,66.8,59.4,29.89,WSW,251,3.0,9.0,77,0.00,,,0.00,Wunderground v.1.15,2013-05-10 06:06:00,
2013-05-10 02:07:00,66.8,59.4,29.89,SSW,207,2.0,9.0,77,0.00,,,0.00,Wunderground v.1.15,2013-05-10 06:07:00,
2013-05-10 02:10:00,66.8,59.4,29.89,West,261,6.0,6.0,77,0.00,,,0.00,Wunderground v.1.15,2013-05-10 06:10:00,
2013-05-10 02:11:00,66.8,59.4,29.89,WSW,249,2.0,6.0,77,0.00,,,0.00,Wunderground v.1.15,2013-05-10 06:11:00,
2013-05-10 02:12:00,66.9,59.5,29.89,West,267,4.0,8.0,77,0.00,,,0.00,Wunderground v.1.15,2013-05-10 06:12:00,
2013-05-10 02:15:00,66.9,59.5,29.89,West,266,0.0,8.0,77,0.00,,,0.00,Wunderground v.1.15,2013-05-10 06:15:00,
2013-05-10 02:16:00,66.8,59.4,29.89,West,266,0.0,8.0,77,0.00,,,0.00,Wunderground v.1.15,2013-05-10 06:16:00,
2013-05-10 02:17:00,66.8,59.4,29.89,West,266,2.0,8.0,77,0.00,,,0.00,Wunderground v.1.15,2013-05-10 06:17:00,
2013-05-10 02:20:00,66.8,59.4,29.88,West,266,0.0,2.0,77,0.00,,,0.00,Wunderground v.1.15,2013-05-10 06:20:00,
2013-05-10 02:21:00,66.8,59.7,29.88,West,266,0.0,2.0,78,0.00,,,0.00,Wunderground v.1.15,2013-05-10 06:21:00,
2013-05-10 02:22:00,66.8,59.7,29.88,West,266,0.0,2.0,78,0.00,,,0.00,Wunderground v.1.15,2013-05-10 06:22:00,
2013-05-10 02:23:00,66.7,59.6,29.88,West,266,0.0,2.0,78,0.00,,,0.00,Wunderground v.1.15,2013-05-10 06:23:00,
2013-05-10 02:25:00,66.7,59.6,29.88,West,267,8.0,8.0,78,0.00,,,0.00,Wunderground v.1.15,2013-05-10 06:25:00,
2013-05-10 02:26:00,66.7,59.6,29.88,SW,227,0.0,8.0,78,0.00,,,0.00,Wunderground v.1.15,2013-05-10 06:26:00,
2013-05-10 02:27:00,66.7,59.6,29.88,SW,227,0.0,8.0,78,0.00,,,0.00,Wunderground v.1.15,2013-05-10 06:27:00,
2013-05-10 02:29:00,66.6,59.5,29.88,SW,227,0.0,8.0,78,0.00,,,0.00,Wunderground v.1.15,2013-05-10 06:29:00,
2013-05-10 02:31:00,66.5,59.4,29.88,SW,223,2.0,2.0,78,0.00,,,0.00,Wunderground v.1.15,2013-05-10 06:31:00,
2013-05-10 02:32:00,66.5,59.4,29.88,SW,223,0.0,4.0,78,0.00,,,0.00,Wunderground v.1.15,2013-05-10 06:32:00,
2013-05-10 02:33:00,66.4,59.3,29.88,South,179,0.0,4.0,78,0.00,,,0.00,Wunderground v.1.15,2013-05-10 06:33:00,
2013-05-10 02:34:00,66.4,59.3,29.87,South,183,1.0,4.0,78,0.00,,,0.00,Wunderground v.1.15,2013-05-10 06:34:00,
2013-05-10 02:36:00,66.3,59.2,29.87,South,183,0.0,4.0,78,0.00,,,0.00,Wunderground v.1.15,2013-05-10 06:36:00,
2013-05-10 02:37:00,66.3,59.2,29.87,SSW,192,1.0,4.0,78,0.00,,,0.00,Wunderground v.1.15,2013-05-10 06:37:00,
2013-05-10 02:38:00,66.3,59.2,29.87,SSW,194,0.0,4.0,78,0.00,,,0.00,Wunderground v.1.15,2013-05-10 06:38:00,
2013-05-10 02:39:00,66.3,59.2,29.87,South,190,0.0,4.0,78,0.00,,,0.00,Wunderground v.1.15,2013-05-10 06:39:00,
2013-05-10 02:41:00,66.3,59.2,29.87,SSW,210,6.0,10.0,78,0.00,,,0.00,Wunderground v.1.15,2013-05-10 06:41:00,
2013-05-10 02:42:00,66.4,59.3,29.87,SSW,194,3.0,10.0,78,0.00,,,0.00,Wunderground v.1.15,2013-05-10 06:42:00,
2013-05-10 02:43:00,66.5,59.4,29.87,South,183,3.0,10.0,78,0.00,,,0.00,Wunderground v.1.15,2013-05-10 06:43:00,
2013-05-10 02:44:00,66.5,59.4,29.87,South,185,2.0,10.0,78,0.00,,,0.00,Wunderground v.1.15,2013-05-10 06:44:00,
2013-05-10 02:46:00,66.6,59.5,29.87,SSW,197,4.0,10.0,78,0.00,,,0.00,Wunderground v.1.15,2013-05-10 06:46:00,
2013-05-10 02:47:00,66.6,59.5,29.87,South,184,1.0,10.0,78,0.00,,,0.00,Wunderground v.1.15,2013-05-10 06:47:00,
2013-05-10 02:49:00,66.6,59.5,29.87,South,173,0.0,10.0,78,0.00,,,0.00,Wunderground v.1.15,2013-05-10 06:49:00,
2013-05-10 02:52:00,66.6,59.5,29.87,SSW,196,0.0,3.0,78,0.00,,,0.00,Wunderground v.1.15,2013-05-10 06:52:00,
2013-05-10 02:53:00,66.6,59.5,29.87,South,172,0.0,3.0,78,0.00,,,0.00,Wunderground v.1.15,2013-05-10 06:53:00,
2013-05-10 02:54:00,66.6,59.5,29.87,SSW,196,2.0,3.0,78,0.00,,,0.00,Wunderground v.1.15,2013-05-10 06:54:00,
2013-05-10 02:57:00,66.5,59.4,29.87,SSW,196,0.0,5.0,78,0.00,,,0.00,Wunderground v.1.15,2013-05-10 06:57:00,
2013-05-10 02:58:00,66.5,59.4,29.87,SSW,196,0.0,5.0,78,0.00,,,0.00,Wunderground v.1.15,2013-05-10 06:58:00,
2013-05-10 02:59:00,66.5,59.4,29.87,SSW,196,0.0,5.0,78,0.00,,,0.00,Wunderground v.1.15,2013-05-10 06:59:00,
2013-05-10 03:00:00,66.5,59.4,29.87,SSW,196,2.0,3.0,78,0.00,,,0.00,Wunderground v.1.15,2013-05-10 07:00:00,
2013-05-10 03:02:00,66.4,59.3,29.87,SSW,196,0.0,3.0,78,0.00,,,0.00,Wunderground v.1.15,2013-05-10 07:02:00,
2013-05-10 03:03:00,66.4,59.3,29.87,SSW,196,2.0,3.0,78,0.00,,,0.00,Wunderground v.1.15,2013-05-10 07:03:00,
2013-05-10 03:04:00,66.3,59.2,29.87,South,190,5.0,5.0,78,0.00,,,0.00,Wunderground v.1.15,2013-05-10 07:04:00,
2013-05-10 03:05:00,66.3,59.2,29.87,South,188,0.0,5.0,78,0.00,,,0.00,Wunderground v.1.15,2013-05-10 07:05:00,
2013-05-10 03:07:00,66.2,59.1,29.87,South,190,0.0,5.0,78,0.00,,,0.00,Wunderground v.1.15,2013-05-10 07:07:00,
2013-05-10 03:08:00,66.2,59.5,29.87,South,190,0.0,5.0,79,0.00,,,0.00,Wunderground v.1.15,2013-05-10 07:08:00,
2013-05-10 03:09:00,66.1,59.4,29.87,South,190,0.0,5.0,79,0.00,,,0.00,Wunderground v.1.15,2013-05-10 07:09:00,
2013-05-10 03:10:00,66.1,59.4,29.87,South,190,1.0,1.0,79,0.00,,,0.00,Wunderground v.1.15,2013-05-10 07:10:00,
2013-05-10 03:12:00,66.1,59.4,29.87,South,190,0.0,3.0,79,0.00,,,0.00,Wunderground v.1.15,2013-05-10 07:12:00,
2013-05-10 03:13:00,66.0,59.3,29.87,South,190,0.0,3.0,79,0.00,,,0.00,Wunderground v.1.15,2013-05-10 07:13:00,
2013-05-10 03:14:00,66.0,59.3,29.87,South,190,0.0,3.0,79,0.00,,,0.00,Wunderground v.1.15,2013-05-10 07:14:00,
2013-05-10 03:15:00,66.0,59.3,29.87,South,190,0.0,3.0,79,0.00,,,0.00,Wunderground v.1.15,2013-05-10 07:15:00,
2013-05-10 03:17:00,66.0,59.3,29.87,South,191,0.0,5.0,79,0.00,,,0.00,Wunderground v.1.15,2013-05-10 07:17:00,
2013-05-10 03:18:00,65.9,59.2,29.87,SSW,196,0.0,5.0,79,0.00,,,0.00,Wunderground v.1.15,2013-05-10 07:18:00,
2013-05-10 03:19:00,65.9,59.2,29.87,SSW,196,0.0,5.0,79,0.00,,,0.00,Wunderground v.1.15,2013-05-10 07:19:00,
2013-05-10 03:20:00,65.9,59.2,29.87,SSE,167,0.0,4.0,79,0.00,,,0.00,Wunderground v.1.15,2013-05-10 07:20:00,
2013-05-10 03:22:00,66.0,59.3,29.87,SSE,167,0.0,4.0,79,0.00,,,0.00,Wunderground v.1.15,2013-05-10 07:22:00,
2013-05-10 03:23:00,66.0,59.3,29.87,South,184,0.0,4.0,79,0.00,,,0.00,Wunderground v.1.15,2013-05-10 07:23:00,
2013-05-10 03:24:00,66.0,59.3,29.87,South,185,0.0,4.0,79,0.00,,,0.00,Wunderground v.1.15,2013-05-10 07:24:00,
2013-05-10 03:25:00,66.0,59.3,29.87,South,185,0.0,4.0,79,0.00,,,0.00,Wunderground v.1.15,2013-05-10 07:25:00,
2013-05-10 03:26:00,66.0,59.3,29.87,South,185,0.0,4.0,79,0.00,,,0.00,Wunderground v.1.15,2013-05-10 07:26:00,
2013-05-10 03:27:00,65.9,59.2,29.87,SSW,208,0.0,5.0,79,0.00,,,0.00,Wunderground v.1.15,2013-05-10 07:27:00,
2013-05-10 03:28:00,65.9,59.2,29.87,South,179,2.0,5.0,79,0.00,,,0.00,Wunderground v.1.15,2013-05-10 07:28:00,
2013-05-10 03:30:00,65.9,59.2,29.87,South,189,0.0,1.0,79,0.00,,,0.00,Wunderground v.1.15,2013-05-10 07:30:00,
2013-05-10 03:31:00,65.9,59.2,29.87,South,186,1.0,3.0,79,0.00,,,0.00,Wunderground v.1.15,2013-05-10 07:31:00,
2013-05-10 03:32:00,65.9,59.2,29.87,South,186,0.0,6.0,79,0.00,,,0.00,Wunderground v.1.15,2013-05-10 07:32:00,
2013-05-10 03:33:00,65.9,59.2,29.87,South,187,0.0,6.0,79,0.00,,,0.00,Wunderground v.1.15,2013-05-10 07:33:00,
2013-05-10 03:35:00,65.9,59.2,29.87,South,187,0.0,6.0,79,0.00,,,0.00,Wunderground v.1.15,2013-05-10 07:35:00,
2013-05-10 03:36:00,65.9,59.2,29.87,South,187,0.0,6.0,79,0.00,,,0.00,Wunderground v.1.15,2013-05-10 07:36:00,
2013-05-10 03:37:00,65.9,59.2,29.87,South,187,0.0,6.0,79,0.00,,,0.00,Wunderground v.1.15,2013-05-10 07:37:00,
2013-05-10 03:39:00,65.9,59.2,29.87,SSW,196,1.0,6.0,79,0.00,,,0.00,Wunderground v.1.15,2013-05-10 07:39:00,
2013-05-10 03:40:00,65.9,59.2,29.87,SSW,200,3.0,5.0,79,0.00,,,0.00,Wunderground v.1.15,2013-05-10 07:40:00,
2013-05-10 03:41:00,65.9,59.2,29.87,SSW,200,0.0,5.0,79,0.00,,,0.00,Wunderground v.1.15,2013-05-10 07:41:00,
2013-05-10 03:42:00,66.0,59.3,29.87,South,171,3.0,5.0,79,0.00,,,0.00,Wunderground v.1.15,2013-05-10 07:42:00,
2013-05-10 03:44:00,66.0,59.7,29.87,SSW,195,2.0,5.0,80,0.00,,,0.00,Wunderground v.1.15,2013-05-10 07:44:00,
2013-05-10 03:45:00,66.0,59.3,29.87,SSW,195,0.0,5.0,79,0.00,,,0.00,Wunderground v.1.15,2013-05-10 07:45:00,
2013-05-10 03:46:00,66.0,59.7,29.87,SSW,195,0.0,5.0,80,0.00,,,0.00,Wunderground v.1.15,2013-05-10 07:46:00,
2013-05-10 03:47:00,66.1,59.7,29.87,SSE,163,1.0,5.0,80,0.00,,,0.00,Wunderground v.1.15,2013-05-10 07:47:00,
2013-05-10 03:49:00,66.1,59.7,29.87,South,183,0.0,5.0,80,0.00,,,0.00,Wunderground v.1.15,2013-05-10 07:49:00,
2013-05-10 03:50:00,66.1,59.7,29.86,South,183,0.0,1.0,80,0.00,,,0.00,Wunderground v.1.15,2013-05-10 07:50:00,
2013-05-10 03:51:00,66.1,59.7,29.86,South,190,0.0,1.0,80,0.00,,,0.00,Wunderground v.1.15,2013-05-10 07:51:00,
2013-05-10 03:52:00,66.1,59.7,29.87,South,190,0.0,2.0,80,0.00,,,0.00,Wunderground v.1.15,2013-05-10 07:52:00,
2013-05-10 03:55:00,66.0,59.3,29.86,South,177,1.0,4.0,79,0.00,,,0.00,Wunderground v.1.15,2013-05-10 07:55:00,
2013-05-10 03:56:00,66.1,59.7,29.86,South,179,2.0,4.0,80,0.00,,,0.00,Wunderground v.1.15,2013-05-10 07:56:00,
2013-05-10 03:57:00,66.1,59.4,29.86,South,179,0.0,4.0,79,0.00,,,0.00,Wunderground v.1.15,2013-05-10 07:57:00,
2013-05-10 04:00:00,66.0,59.7,29.86,South,185,0.0,1.0,80,0.00,,,0.00,Wunderground v.1.15,2013-05-10 08:00:00,
2013-05-10 04:01:00,66.0,59.7,29.86,South,189,1.0,4.0,80,0.00,,,0.00,Wunderground v.1.15,2013-05-10 08:01:00,
2013-05-10 04:03:00,65.9,59.6,29.86,SSW,198,0.0,4.0,80,0.00,,,0.00,Wunderground v.1.15,2013-05-10 08:03:00,
2013-05-10 04:05:00,65.9,59.6,29.86,SSW,198,0.0,4.0,80,0.00,,,0.00,Wunderground v.1.15,2013-05-10 08:05:00,
2013-05-10 04:06:00,65.9,59.6,29.86,SSW,198,0.0,4.0,80,0.00,,,0.00,Wunderground v.1.15,2013-05-10 08:06:00,
2013-05-10 04:08:00,65.8,59.5,29.85,SSW,198,0.0,4.0,80,0.00,,,0.00,Wunderground v.1.15,2013-05-10 08:08:00,
2013-05-10 04:10:00,65.8,59.5,29.85,South,177,5.0,5.0,80,0.00,,,0.00,Wunderground v.1.15,2013-05-10 08:10:00,
2013-05-10 04:11:00,65.7,59.4,29.86,South,191,2.0,5.0,80,0.00,,,0.00,Wunderground v.1.15,2013-05-10 08:11:00,
2013-05-10 04:12:00,65.7,59.4,29.86,South,173,3.0,5.0,80,0.00,,,0.00,Wunderground v.1.15,2013-05-10 08:12:00,
2013-05-10 04:13:00,65.7,59.4,29.86,South,189,4.0,5.0,80,0.00,,,0.00,Wunderground v.1.15,2013-05-10 08:13:00,
2013-05-10 04:15:00,65.6,59.3,29.85,South,187,0.0,5.0,80,0.00,,,0.00,Wunderground v.1.15,2013-05-10 08:15:00,
2013-05-10 04:16:00,65.6,59.3,29.86,SSW,198,3.0,5.0,80,0.00,,,0.00,Wunderground v.1.15,2013-05-10 08:16:00,
2013-05-10 04:17:00,65.6,59.3,29.86,South,190,0.0,5.0,80,0.00,,,0.00,Wunderground v.1.15,2013-05-10 08:17:00,
2013-05-10 04:18:00,65.6,59.3,29.85,South,189,3.0,5.0,80,0.00,,,0.00,Wunderground v.1.15,2013-05-10 08:18:00,
2013-05-10 04:21:00,65.5,59.5,29.85,South,189,0.0,2.0,81,0.00,,,0.00,Wunderground v.1.15,2013-05-10 08:21:00,
2013-05-10 04:22:00,65.4,59.4,29.85,South,188,3.0,4.0,81,0.00,,,0.00,Wunderground v.1.15,2013-05-10 08:22:00,
2013-05-10 04:23:00,65.4,59.4,29.85,SSW,193,2.0,4.0,81,0.00,,,0.00,Wunderground v.1.15,2013-05-10 08:23:00,
2013-05-10 04:26:00,65.4,59.4,29.86,SSW,194,0.0,4.0,81,0.00,,,0.00,Wunderground v.1.15,2013-05-10 08:26:00,
2013-05-10 04:27:00,65.5,59.5,29.85,SSW,192,0.0,4.0,81,0.00,,,0.00,Wunderground v.1.15,2013-05-10 08:27:00,
2013-05-10 04:28:00,65.5,59.5,29.85,South,187,0.0,4.0,81,0.00,,,0.00,Wunderground v.1.15,2013-05-10 08:28:00,
2013-05-10 04:31:00,65.5,59.5,29.85,SSW,202,0.0,1.0,81,0.00,,,0.00,Wunderground v.1.15,2013-05-10 08:31:00,
2013-05-10 04:32:00,65.4,59.4,29.85,SSW,202,0.0,1.0,81,0.00,,,0.00,Wunderground v.1.15,2013-05-10 08:32:00,
2013-05-10 04:33:00,65.4,59.4,29.85,SSW,202,0.0,4.0,81,0.00,,,0.00,Wunderground v.1.15,2013-05-10 08:33:00,
2013-05-10 04:36:00,65.4,59.4,29.85,South,186,0.0,4.0,81,0.00,,,0.00,Wunderground v.1.15,2013-05-10 08:36:00,
2013-05-10 04:37:00,65.4,59.4,29.85,South,186,0.0,4.0,81,0.00,,,0.00,Wunderground v.1.15,2013-05-10 08:37:00,
2013-05-10 04:38:00,65.3,59.3,29.85,South,186,0.0,4.0,81,0.00,,,0.00,Wunderground v.1.15,2013-05-10 08:38:00,
2013-05-10 04:39:00,65.3,59.3,29.85,South,186,0.0,4.0,81,0.00,,,0.00,Wunderground v.1.15,2013-05-10 08:39:00,
2013-05-10 04:41:00,65.2,59.2,29.85,South,186,0.0,0.0,81,0.00,,,0.00,Wunderground v.1.15,2013-05-10 08:41:00,
2013-05-10 04:42:00,65.2,59.2,29.85,South,186,0.0,0.0,81,0.00,,,0.00,Wunderground v.1.15,2013-05-10 08:42:00,
2013-05-10 04:44:00,65.2,59.2,29.85,South,190,0.0,1.0,81,0.00,,,0.00,Wunderground v.1.15,2013-05-10 08:44:00,
2013-05-10 04:47:00,65.1,59.1,29.85,South,190,0.0,1.0,81,0.00,,,0.00,Wunderground v.1.15,2013-05-10 08:47:00,
2013-05-10 04:49:00,65.1,59.1,29.85,South,190,0.0,1.0,81,0.00,,,0.00,Wunderground v.1.15,2013-05-10 08:49:00,
2013-05-10 04:52:00,65.0,59.0,29.85,South,190,0.0,0.0,81,0.00,,,0.00,Wunderground v.1.15,2013-05-10 08:52:00,
2013-05-10 04:54:00,64.9,59.3,29.85,South,190,0.0,0.0,82,0.00,,,0.00,Wunderground v.1.15,2013-05-10 08:54:00,
2013-05-10 04:57:00,64.9,59.3,29.86,South,190,0.0,0.0,82,0.00,,,0.00,Wunderground v.1.15,2013-05-10 08:57:00,
2013-05-10 04:59:00,64.7,59.1,29.85,South,190,0.0,0.0,82,0.00,,,0.00,Wunderground v.1.15,2013-05-10 08:59:00,
2013-05-10 05:02:00,64.7,59.1,29.85,South,190,0.0,0.0,82,0.00,,,0.00,Wunderground v.1.15,2013-05-10 09:02:00,
2013-05-10 05:03:00,64.7,59.1,29.85,South,190,0.0,0.0,82,0.00,,,0.00,Wunderground v.1.15,2013-05-10 09:03:00,
2013-05-10 05:04:00,64.6,59.0,29.85,South,190,0.0,0.0,82,0.00,,,0.00,Wunderground v.1.15,2013-05-10 09:04:00,
2013-05-10 05:07:00,64.5,58.9,29.85,South,190,0.0,2.0,82,0.00,,,0.00,Wunderground v.1.15,2013-05-10 09:07:00,
2013-05-10 05:08:00,64.5,58.9,29.85,South,190,0.0,2.0,82,0.00,,,0.00,Wunderground v.1.15,2013-05-10 09:08:00,
2013-05-10 05:09:00,64.5,58.9,29.85,South,190,0.0,2.0,82,0.00,,,0.00,Wunderground v.1.15,2013-05-10 09:09:00,
2013-05-10 05:10:00,64.4,58.8,29.85,South,190,0.0,0.0,82,0.00,,,0.00,Wunderground v.1.15,2013-05-10 09:10:00,
2013-05-10 05:12:00,64.4,59.1,29.85,South,190,0.0,0.0,83,0.00,,,0.00,Wunderground v.1.15,2013-05-10 09:12:00,
2013-05-10 05:13:00,64.4,59.1,29.85,South,190,0.0,0.0,83,0.00,,,0.00,Wunderground v.1.15,2013-05-10 09:13:00,
2013-05-10 05:15:00,64.4,59.1,29.85,South,189,0.0,1.0,83,0.00,,,0.00,Wunderground v.1.15,2013-05-10 09:15:00,
2013-05-10 05:17:00,64.3,59.0,29.85,South,189,0.0,1.0,83,0.00,,,0.00,Wunderground v.1.15,2013-05-10 09:17:00,
2013-05-10 05:18:00,64.3,59.0,29.85,South,189,0.0,1.0,83,0.00,,,0.00,Wunderground v.1.15,2013-05-10 09:18:00,
2013-05-10 05:20:00,64.3,59.0,29.85,South,189,0.0,0.0,83,0.00,,,0.00,Wunderground v.1.15,2013-05-10 09:20:00,
2013-05-10 05:22:00,64.3,59.0,29.84,South,189,0.0,0.0,83,0.00,,,0.00,Wunderground v.1.15,2013-05-10 09:22:00,
2013-05-10 05:23:00,64.3,59.0,29.84,South,189,0.0,0.0,83,0.00,,,0.00,Wunderground v.1.15,2013-05-10 09:23:00,
2013-05-10 05:25:00,64.2,58.9,29.84,South,189,0.0,2.0,83,0.00,,,0.00,Wunderground v.1.15,2013-05-10 09:25:00,
2013-05-10 05:27:00,64.2,58.9,29.84,South,189,0.0,2.0,83,0.00,,,0.00,Wunderground v.1.15,2013-05-10 09:27:00,
2013-05-10 05:28:00,64.2,58.9,29.84,South,189,0.0,2.0,83,0.00,,,0.00,Wunderground v.1.15,2013-05-10 09:28:00,
2013-05-10 05:30:00,64.1,58.8,29.84,South,189,0.0,0.0,83,0.00,,,0.00,Wunderground v.1.15,2013-05-10 09:30:00,
2013-05-10 05:31:00,64.1,58.8,29.84,South,189,0.0,0.0,83,0.00,,,0.00,Wunderground v.1.15,2013-05-10 09:31:00,
2013-05-10 05:33:00,64.1,58.8,29.84,South,189,0.0,0.0,83,0.00,,,0.00,Wunderground v.1.15,2013-05-10 09:33:00,
2013-05-10 05:36:00,64.1,58.8,29.84,South,189,0.0,0.0,83,0.00,,,0.00,Wunderground v.1.15,2013-05-10 09:36:00,
2013-05-10 05:38:00,64.0,58.7,29.84,South,189,0.0,0.0,83,0.00,,,0.00,Wunderground v.1.15,2013-05-10 09:38:00,
2013-05-10 05:41:00,64.0,58.7,29.84,South,189,0.0,0.0,83,0.00,,,0.00,Wunderground v.1.15,2013-05-10 09:41:00,
2013-05-10 05:43:00,64.0,58.7,29.84,South,189,0.0,3.0,83,0.00,,,0.00,Wunderground v.1.15,2013-05-10 09:43:00,
2013-05-10 05:44:00,64.0,58.7,29.84,South,189,0.0,3.0,83,0.00,,,0.00,Wunderground v.1.15,2013-05-10 09:44:00,
2013-05-10 05:46:00,64.0,58.7,29.84,SSW,196,0.0,3.0,83,0.00,,,0.00,Wunderground v.1.15,2013-05-10 09:46:00,
2013-05-10 05:49:00,64.0,58.7,29.84,SSW,196,0.0,3.0,83,0.00,,,0.00,Wunderground v.1.15,2013-05-10 09:49:00,
2013-05-10 05:51:00,64.0,58.7,29.84,SSW,196,0.0,1.0,83,0.00,,,0.00,Wunderground v.1.15,2013-05-10 09:51:00,
2013-05-10 05:54:00,63.9,58.6,29.84,SSW,196,0.0,7.0,83,0.00,,,0.00,Wunderground v.1.15,2013-05-10 09:54:00,
2013-05-10 05:56:00,63.9,58.6,29.84,SSW,196,0.0,7.0,83,0.00,,,0.00,Wunderground v.1.15,2013-05-10 09:56:00,
2013-05-10 05:59:00,63.9,58.6,29.84,SSW,196,0.0,7.0,83,0.00,,,0.00,Wunderground v.1.15,2013-05-10 09:59:00,
2013-05-10 06:01:00,63.9,58.6,29.84,SSW,196,0.0,1.0,83,0.00,,,0.00,Wunderground v.1.15,2013-05-10 10:01:00,
2013-05-10 06:04:00,63.9,59.0,29.84,SSW,196,0.0,3.0,84,0.00,,,0.00,Wunderground v.1.15,2013-05-10 10:04:00,
2013-05-10 06:05:00,63.9,59.0,29.84,SSW,196,0.0,3.0,84,0.00,,,0.00,Wunderground v.1.15,2013-05-10 10:05:00,
2013-05-10 06:07:00,63.9,59.0,29.84,SSW,196,0.0,3.0,84,0.00,,,0.00,Wunderground v.1.15,2013-05-10 10:07:00,
2013-05-10 06:09:00,63.8,58.9,29.84,SSW,196,0.0,3.0,84,0.00,,,0.00,Wunderground v.1.15,2013-05-10 10:09:00,
2013-05-10 06:10:00,63.8,58.9,29.84,SSW,196,0.0,0.0,84,0.00,,,0.00,Wunderground v.1.15,2013-05-10 10:10:00,
2013-05-10 06:12:00,63.8,58.9,29.84,SSW,196,0.0,0.0,84,0.00,,,0.00,Wunderground v.1.15,2013-05-10 10:12:00,
2013-05-10 06:14:00,63.8,58.9,29.84,SSW,196,0.0,0.0,84,0.00,,,0.00,Wunderground v.1.15,2013-05-10 10:14:00,
2013-05-10 06:15:00,63.8,58.9,29.84,SSW,196,0.0,0.0,84,0.00,,,0.00,Wunderground v.1.15,2013-05-10 10:15:00,
2013-05-10 06:17:00,63.7,58.8,29.84,SSW,196,0.0,0.0,84,0.00,,,0.00,Wunderground v.1.15,2013-05-10 10:17:00,
2013-05-10 06:19:00,63.6,58.7,29.84,SSW,196,0.0,0.0,84,0.00,,,0.00,Wunderground v.1.15,2013-05-10 10:19:00,
2013-05-10 06:20:00,63.6,58.7,29.84,SSW,196,0.0,0.0,84,0.00,,,0.00,Wunderground v.1.15,2013-05-10 10:20:00,
2013-05-10 06:22:00,63.6,58.7,29.84,SSW,196,0.0,0.0,84,0.00,,,0.00,Wunderground v.1.15,2013-05-10 10:22:00,
2013-05-10 06:23:00,63.6,58.7,29.84,SSW,196,0.0,0.0,84,0.00,,,0.00,Wunderground v.1.15,2013-05-10 10:23:00,
2013-05-10 06:24:00,63.6,58.7,29.84,SSW,196,2.0,2.0,84,0.00,,,0.00,Wunderground v.1.15,2013-05-10 10:24:00,
2013-05-10 06:25:00,63.6,58.7,29.84,SSW,196,0.0,2.0,84,0.00,,,0.00,Wunderground v.1.15,2013-05-10 10:25:00,
2013-05-10 06:27:00,63.5,58.6,29.84,SSW,196,0.0,2.0,84,0.00,,,0.00,Wunderground v.1.15,2013-05-10 10:27:00,
2013-05-10 06:28:00,63.5,58.6,29.84,SSW,196,0.0,2.0,84,0.00,,,0.00,Wunderground v.1.15,2013-05-10 10:28:00,
2013-05-10 06:30:00,63.5,58.6,29.84,SSW,196,0.0,0.0,84,0.00,,,0.00,Wunderground v.1.15,2013-05-10 10:30:00,
2013-05-10 06:33:00,63.5,58.6,29.84,SSW,196,0.0,0.0,84,0.00,,,0.00,Wunderground v.1.15,2013-05-10 10:33:00,
2013-05-10 06:34:00,63.5,58.6,29.84,SSW,196,0.0,0.0,84,0.00,,,0.00,Wunderground v.1.15,2013-05-10 10:34:00,
2013-05-10 06:35:00,63.4,58.5,29.84,SSW,196,0.0,0.0,84,0.00,,,0.00,Wunderground v.1.15,2013-05-10 10:35:00,
2013-05-10 06:36:00,63.5,58.6,29.84,SSW,196,0.0,0.0,84,0.00,,,0.00,Wunderground v.1.15,2013-05-10 10:36:00,
2013-05-10 06:39:00,63.4,58.5,29.84,SSW,196,0.0,1.0,84,0.00,,,0.00,Wunderground v.1.15,2013-05-10 10:39:00,
2013-05-10 06:40:00,63.4,58.5,29.84,SSW,196,0.0,0.0,84,0.00,,,0.00,Wunderground v.1.15,2013-05-10 10:40:00,
2013-05-10 06:41:00,63.4,58.5,29.84,SSW,196,0.0,0.0,84,0.00,,,0.00,Wunderground v.1.15,2013-05-10 10:41:00,
2013-05-10 06:44:00,63.4,58.5,29.84,SSW,196,0.0,0.0,84,0.00,,,0.00,Wunderground v.1.15,2013-05-10 10:44:00,
2013-05-10 06:45:00,63.4,58.5,29.84,SSW,196,0.0,0.0,84,0.00,,,0.00,Wunderground v.1.15,2013-05-10 10:45:00,
2013-05-10 06:46:00,63.4,58.5,29.84,SSW,196,0.0,0.0,84,0.00,,,0.00,Wunderground v.1.15,2013-05-10 10:46:00,
2013-05-10 06:49:00,63.4,58.5,29.85,SSW,196,0.0,2.0,84,0.00,,,0.00,Wunderground v.1.15,2013-05-10 10:49:00,
2013-05-10 06:50:00,63.3,58.4,29.84,SSW,196,0.0,0.0,84,0.00,,,0.00,Wunderground v.1.15,2013-05-10 10:50:00,
2013-05-10 06:51:00,63.3,58.4,29.85,SSW,196,0.0,0.0,84,0.00,,,0.00,Wunderground v.1.15,2013-05-10 10:51:00,
2013-05-10 06:55:00,63.3,58.7,29.85,SSW,196,0.0,1.0,85,0.00,,,0.00,Wunderground v.1.15,2013-05-10 10:55:00,
2013-05-10 06:56:00,63.3,58.7,29.85,SSW,196,0.0,1.0,85,0.00,,,0.00,Wunderground v.1.15,2013-05-10 10:56:00,
2013-05-10 07:00:00,63.3,58.7,29.85,SSW,196,0.0,2.0,85,0.00,,,0.00,Wunderground v.1.15,2013-05-10 11:00:00,
2013-05-10 07:01:00,63.3,58.7,29.85,SSW,196,0.0,2.0,85,0.00,,,0.00,Wunderground v.1.15,2013-05-10 11:01:00,
2013-05-10 07:05:00,63.4,58.8,29.84,SSW,196,0.0,2.0,85,0.00,,,0.00,Wunderground v.1.15,2013-05-10 11:05:00,
2013-05-10 07:06:00,63.4,58.8,29.84,SSW,196,0.0,2.0,85,0.00,,,0.00,Wunderground v.1.15,2013-05-10 11:06:00,
2013-05-10 07:07:00,63.3,58.7,29.85,SSW,196,0.0,2.0,85,0.00,,,0.00,Wunderground v.1.15,2013-05-10 11:07:00,
2013-05-10 07:10:00,63.4,58.8,29.85,South,175,1.0,5.0,85,0.00,,,0.00,Wunderground v.1.15,2013-05-10 11:10:00,
2013-05-10 07:11:00,63.4,58.8,29.85,South,183,0.0,5.0,85,0.00,,,0.00,Wunderground v.1.15,2013-05-10 11:11:00,
2013-05-10 07:12:00,63.4,58.8,29.85,South,183,0.0,5.0,85,0.00,,,0.00,Wunderground v.1.15,2013-05-10 11:12:00,
2013-05-10 07:16:00,63.4,58.8,29.84,South,183,0.0,5.0,85,0.00,,,0.00,Wunderground v.1.15,2013-05-10 11:16:00,
2013-05-10 07:17:00,63.4,58.8,29.84,South,183,0.0,5.0,85,0.00,,,0.00,Wunderground v.1.15,2013-05-10 11:17:00,
2013-05-10 07:21:00,63.5,58.9,29.84,South,183,0.0,0.0,85,0.00,,,0.00,Wunderground v.1.15,2013-05-10 11:21:00,
2013-05-10 07:22:00,63.4,58.8,29.84,South,183,0.0,0.0,85,0.00,,,0.00,Wunderground v.1.15,2013-05-10 11:22:00,
2013-05-10 07:26:00,63.4,58.8,29.84,South,190,3.0,5.0,85,0.00,,,0.00,Wunderground v.1.15,2013-05-10 11:26:00,
2013-05-10 07:27:00,63.4,58.8,29.84,South,190,0.0,5.0,85,0.00,,,0.00,Wunderground v.1.15,2013-05-10 11:27:00,
2013-05-10 07:31:00,63.5,58.9,29.84,SW,222,0.0,1.0,85,0.00,,,0.00,Wunderground v.1.15,2013-05-10 11:31:00,
2013-05-10 07:32:00,63.5,58.9,29.84,SW,222,0.0,1.0,85,0.00,,,0.00,Wunderground v.1.15,2013-05-10 11:32:00,
2013-05-10 07:36:00,63.5,58.9,29.84,SW,222,0.0,2.0,85,0.00,,,0.00,Wunderground v.1.15,2013-05-10 11:36:00,
2013-05-10 07:37:00,63.5,58.9,29.84,SSW,210,2.0,2.0,85,0.00,,,0.00,Wunderground v.1.15,2013-05-10 11:37:00,
2013-05-10 07:41:00,63.5,58.9,29.84,SSW,208,0.0,0.0,85,0.00,,,0.00,Wunderground v.1.15,2013-05-10 11:41:00,
2013-05-10 07:42:00,63.5,58.9,29.85,SSW,208,0.0,0.0,85,0.00,,,0.00,Wunderground v.1.15,2013-05-10 11:42:00,
2013-05-10 07:46:00,63.6,59.0,29.84,SSW,208,4.0,4.0,85,0.00,,,0.00,Wunderground v.1.15,2013-05-10 11:46:00,
2013-05-10 07:47:00,63.6,59.0,29.84,SSW,208,2.0,4.0,85,0.00,,,0.00,Wunderground v.1.15,2013-05-10 11:47:00,
2013-05-10 07:52:00,63.6,59.0,29.85,SSW,208,2.0,2.0,85,0.00,,,0.00,Wunderground v.1.15,2013-05-10 11:52:00,
2013-05-10 07:53:00,63.6,59.0,29.85,SSW,208,0.0,2.0,85,0.00,,,0.00,Wunderground v.1.15,2013-05-10 11:53:00,
2013-05-10 07:57:00,63.7,59.1,29.85,South,187,2.0,5.0,85,0.00,,,0.00,Wunderground v.1.15,2013-05-10 11:57:00,
2013-05-10 07:58:00,63.7,59.1,29.85,SSW,193,0.0,5.0,85,0.00,,,0.00,Wunderground v.1.15,2013-05-10 11:58:00,
2013-05-10 08:02:00,63.8,59.2,29.85,SSW,201,0.0,0.0,85,0.00,,,0.00,Wunderground v.1.15,2013-05-10 12:02:00,
2013-05-10 08:03:00,63.8,59.2,29.85,SSW,201,2.0,2.0,85,0.00,,,0.00,Wunderground v.1.15,2013-05-10 12:03:00,
2013-05-10 08:07:00,63.8,59.2,29.85,South,185,0.0,4.0,85,0.00,,,0.00,Wunderground v.1.15,2013-05-10 12:07:00,
2013-05-10 08:08:00,63.8,59.2,29.85,SSW,207,0.0,4.0,85,0.00,,,0.00,Wunderground v.1.15,2013-05-10 12:08:00,
2013-05-10 08:12:00,63.9,59.3,29.85,SSW,207,0.0,0.0,85,0.00,,,0.00,Wunderground v.1.15,2013-05-10 12:12:00,
2013-05-10 08:13:00,63.9,59.6,29.85,SSW,206,0.0,0.0,86,0.00,,,0.00,Wunderground v.1.15,2013-05-10 12:13:00,
2013-05-10 08:17:00,63.9,59.3,29.85,South,186,0.0,5.0,85,0.00,,,0.00,Wunderground v.1.15,2013-05-10 12:17:00,
2013-05-10 08:18:00,64.0,59.4,29.85,South,188,0.0,5.0,85,0.00,,,0.00,Wunderground v.1.15,2013-05-10 12:18:00,
2013-05-10 08:22:00,64.1,59.5,29.85,SSE,167,0.0,4.0,85,0.00,,,0.00,Wunderground v.1.15,2013-05-10 12:22:00,
2013-05-10 08:23:00,64.1,59.5,29.85,SSW,193,0.0,4.0,85,0.00,,,0.00,Wunderground v.1.15,2013-05-10 12:23:00,
2013-05-10 08:27:00,64.2,59.6,29.84,South,188,0.0,7.0,85,0.00,,,0.00,Wunderground v.1.15,2013-05-10 12:27:00,
2013-05-10 08:28:00,64.2,59.6,29.85,South,188,0.0,7.0,85,0.00,,,0.00,Wunderground v.1.15,2013-05-10 12:28:00,
2013-05-10 08:33:00,64.3,59.7,29.85,SSW,200,2.0,8.0,85,0.00,,,0.00,Wunderground v.1.15,2013-05-10 12:33:00,
2013-05-10 08:38:00,64.5,59.9,29.84,SSW,198,0.0,8.0,85,0.00,,,0.00,Wunderground v.1.15,2013-05-10 12:38:00,
2013-05-10 08:39:00,64.5,59.9,29.84,South,177,0.0,8.0,85,0.00,,,0.00,Wunderground v.1.15,2013-05-10 12:39:00,
2013-05-10 08:43:00,64.6,60.0,29.84,SSW,201,4.0,4.0,85,0.00,,,0.00,Wunderground v.1.15,2013-05-10 12:43:00,
2013-05-10 08:44:00,64.6,60.0,29.84,SSW,198,0.0,4.0,85,0.00,,,0.00,Wunderground v.1.15,2013-05-10 12:44:00,
2013-05-10 08:48:00,64.7,60.1,29.84,SSW,199,0.0,4.0,85,0.00,,,0.00,Wunderground v.1.15,2013-05-10 12:48:00,
2013-05-10 08:49:00,64.7,60.1,29.84,SSW,199,0.0,4.0,85,0.00,,,0.00,Wunderground v.1.15,2013-05-10 12:49:00,
2013-05-10 08:53:00,64.7,60.1,29.84,SSW,200,0.0,4.0,85,0.00,,,0.00,Wunderground v.1.15,2013-05-10 12:53:00,
2013-05-10 08:55:00,64.8,60.2,29.84,SSW,200,0.0,4.0,85,0.00,,,0.00,Wunderground v.1.15,2013-05-10 12:55:00,
2013-05-10 08:58:00,64.7,60.1,29.84,SSW,200,0.0,4.0,85,0.00,,,0.00,Wunderground v.1.15,2013-05-10 12:58:00,
2013-05-10 08:59:00,64.7,60.1,29.84,SSW,200,0.0,4.0,85,0.00,,,0.00,Wunderground v.1.15,2013-05-10 12:59:00,
2013-05-10 09:00:00,64.7,60.1,29.84,South,187,1.0,1.0,85,0.00,,,0.00,Wunderground v.1.15,2013-05-10 13:00:00,
2013-05-10 09:04:00,64.8,60.2,29.84,SW,222,0.0,3.0,85,0.00,,,0.00,Wunderground v.1.15,2013-05-10 13:04:00,
2013-05-10 09:05:00,64.8,60.2,29.84,SSW,203,0.0,3.0,85,0.00,,,0.00,Wunderground v.1.15,2013-05-10 13:05:00,
2013-05-10 09:06:00,64.9,60.3,29.84,SSW,203,0.0,3.0,85,0.00,,,0.00,Wunderground v.1.15,2013-05-10 13:06:00,
2013-05-10 09:09:00,65.0,60.4,29.84,SSW,204,0.0,3.0,85,0.00,,,0.00,Wunderground v.1.15,2013-05-10 13:09:00,
2013-05-10 09:10:00,65.1,60.5,29.84,SSW,204,0.0,0.0,85,0.00,,,0.00,Wunderground v.1.15,2013-05-10 13:10:00,
2013-05-10 09:11:00,65.1,60.5,29.84,South,189,0.0,0.0,85,0.00,,,0.00,Wunderground v.1.15,2013-05-10 13:11:00,
2013-05-10 09:14:00,65.2,60.6,29.84,South,188,0.0,3.0,85,0.00,,,0.00,Wunderground v.1.15,2013-05-10 13:14:00,
2013-05-10 09:15:00,65.4,60.8,29.84,South,188,0.0,3.0,85,0.00,,,0.00,Wunderground v.1.15,2013-05-10 13:15:00,
2013-05-10 09:16:00,65.4,60.8,29.84,South,189,0.0,3.0,85,0.00,,,0.00,Wunderground v.1.15,2013-05-10 13:16:00,
2013-05-10 09:19:00,65.6,61.0,29.84,South,190,0.0,4.0,85,0.00,,,0.00,Wunderground v.1.15,2013-05-10 13:19:00,
2013-05-10 09:20:00,65.6,61.0,29.84,SSW,192,0.0,2.0,85,0.00,,,0.00,Wunderground v.1.15,2013-05-10 13:20:00,
2013-05-10 09:22:00,65.6,60.6,29.84,SSW,196,0.0,4.0,84,0.00,,,0.00,Wunderground v.1.15,2013-05-10 13:22:00,
2013-05-10 09:24:00,65.7,60.7,29.83,South,172,1.0,7.0,84,0.00,,,0.00,Wunderground v.1.15,2013-05-10 13:24:00,
2013-05-10 09:25:00,65.7,60.7,29.83,SSE,168,0.0,7.0,84,0.00,,,0.00,Wunderground v.1.15,2013-05-10 13:25:00,
2013-05-10 09:27:00,65.8,60.8,29.83,South,181,0.0,7.0,84,0.00,,,0.00,Wunderground v.1.15,2013-05-10 13:27:00,
2013-05-10 09:29:00,66.0,61.4,29.83,SSW,200,1.0,7.0,85,0.00,,,0.00,Wunderground v.1.15,2013-05-10 13:29:00,
2013-05-10 09:30:00,66.1,61.5,29.83,SSW,199,0.0,1.0,85,0.00,,,0.00,Wunderground v.1.15,2013-05-10 13:30:00,
2013-05-10 09:31:00,66.2,61.2,29.83,South,189,3.0,8.0,84,0.00,,,0.00,Wunderground v.1.15,2013-05-10 13:31:00,
2013-05-10 09:32:00,66.2,61.2,29.83,South,186,0.0,8.0,84,0.00,,,0.00,Wunderground v.1.15,2013-05-10 13:32:00,
2013-05-10 09:34:00,66.4,61.4,29.83,South,187,0.0,8.0,84,0.00,,,0.00,Wunderground v.1.15,2013-05-10 13:34:00,
2013-05-10 09:35:00,66.5,61.5,29.83,South,173,0.0,8.0,84,0.00,,,0.00,Wunderground v.1.15,2013-05-10 13:35:00,
2013-05-10 09:36:00,66.6,61.6,29.83,South,186,2.0,8.0,84,0.00,,,0.00,Wunderground v.1.15,2013-05-10 13:36:00,
2013-05-10 09:38:00,66.6,61.3,29.83,South,187,2.0,8.0,83,0.00,,,0.00,Wunderground v.1.15,2013-05-10 13:38:00,
2013-05-10 09:39:00,66.7,61.7,29.83,South,181,0.0,8.0,84,0.00,,,0.00,Wunderground v.1.15,2013-05-10 13:39:00,
2013-05-10 09:40:00,66.7,61.4,29.83,South,186,2.0,5.0,83,0.00,,,0.00,Wunderground v.1.15,2013-05-10 13:40:00,
2013-05-10 09:41:00,66.7,61.4,29.83,SSE,152,1.0,6.0,83,0.00,,,0.00,Wunderground v.1.15,2013-05-10 13:41:00,
2013-05-10 09:43:00,66.7,61.4,29.83,South,187,3.0,7.0,83,0.00,,,0.00,Wunderground v.1.15,2013-05-10 13:43:00,
2013-05-10 09:44:00,66.7,61.4,29.83,South,170,2.0,7.0,83,0.00,,,0.00,Wunderground v.1.15,2013-05-10 13:44:00,
2013-05-10 09:45:00,66.7,61.4,29.84,South,185,0.0,7.0,83,0.00,,,0.00,Wunderground v.1.15,2013-05-10 13:45:00,
2013-05-10 09:46:00,66.7,61.4,29.83,South,188,4.0,7.0,83,0.00,,,0.00,Wunderground v.1.15,2013-05-10 13:46:00,
2013-05-10 09:48:00,66.6,61.3,29.84,South,187,0.0,7.0,83,0.00,,,0.00,Wunderground v.1.15,2013-05-10 13:48:00,
2013-05-10 09:50:00,66.6,61.3,29.84,South,189,0.0,3.0,83,0.00,,,0.00,Wunderground v.1.15,2013-05-10 13:50:00,
2013-05-10 09:51:00,66.6,61.3,29.83,South,190,0.0,3.0,83,0.00,,,0.00,Wunderground v.1.15,2013-05-10 13:51:00,
2013-05-10 09:52:00,66.6,61.3,29.83,South,188,0.0,3.0,83,0.00,,,0.00,Wunderground v.1.15,2013-05-10 13:52:00,
2013-05-10 09:53:00,66.5,61.2,29.83,South,189,0.0,3.0,83,0.00,,,0.00,Wunderground v.1.15,2013-05-10 13:53:00,
2013-05-10 09:55:00,66.5,61.2,29.84,South,189,0.0,4.0,83,0.00,,,0.00,Wunderground v.1.15,2013-05-10 13:55:00,
2013-05-10 09:56:00,66.5,61.2,29.84,SSW,195,0.0,4.0,83,0.00,,,0.00,Wunderground v.1.15,2013-05-10 13:56:00,
2013-05-10 09:57:00,66.5,61.2,29.84,South,187,0.0,4.0,83,0.00,,,0.00,Wunderground v.1.15,2013-05-10 13:57:00,
2013-05-10 09:58:00,66.5,61.2,29.83,South,187,2.0,4.0,83,0.00,,,0.00,Wunderground v.1.15,2013-05-10 13:58:00,
2013-05-10 10:00:00,66.4,61.1,29.83,South,187,0.0,1.0,83,0.00,,,0.00,Wunderground v.1.15,2013-05-10 14:00:00,
2013-05-10 10:01:00,66.4,61.1,29.83,South,188,2.0,2.0,83,0.00,,,0.00,Wunderground v.1.15,2013-05-10 14:01:00,
2013-05-10 10:02:00,66.4,61.1,29.83,South,190,0.0,3.0,83,0.00,,,0.00,Wunderground v.1.15,2013-05-10 14:02:00,
2013-05-10 10:03:00,66.4,61.1,29.83,South,190,0.0,3.0,83,0.00,,,0.00,Wunderground v.1.15,2013-05-10 14:03:00,
2013-05-10 10:05:00,66.5,61.2,29.83,South,190,0.0,4.0,83,0.00,,,0.00,Wunderground v.1.15,2013-05-10 14:05:00,
2013-05-10 10:06:00,66.5,61.2,29.83,South,190,0.0,4.0,83,0.00,,,0.00,Wunderground v.1.15,2013-05-10 14:06:00,
2013-05-10 10:07:00,66.5,61.5,29.83,SSW,192,0.0,4.0,84,0.00,,,0.00,Wunderground v.1.15,2013-05-10 14:07:00,
2013-05-10 10:08:00,66.5,61.2,29.83,SSW,192,0.0,4.0,83,0.00,,,0.00,Wunderground v.1.15,2013-05-10 14:08:00,
2013-05-10 10:11:00,66.6,61.3,29.83,South,188,0.0,0.0,83,0.00,,,0.00,Wunderground v.1.15,2013-05-10 14:11:00,
2013-05-10 10:12:00,66.6,61.3,29.83,South,188,0.0,0.0,83,0.00,,,0.00,Wunderground v.1.15,2013-05-10 14:12:00,
2013-05-10 10:13:00,66.6,61.3,29.83,South,188,0.0,0.0,83,0.00,,,0.00,Wunderground v.1.15,2013-05-10 14:13:00,
2013-05-10 10:16:00,66.6,61.6,29.83,South,181,0.0,0.0,84,0.00,,,0.00,Wunderground v.1.15,2013-05-10 14:16:00,
2013-05-10 10:17:00,66.6,61.6,29.83,South,188,0.0,5.0,84,0.00,,,0.00,Wunderground v.1.15,2013-05-10 14:17:00,
2013-05-10 10:18:00,66.6,61.6,29.83,South,188,0.0,5.0,84,0.00,,,0.00,Wunderground v.1.15,2013-05-10 14:18:00,
2013-05-10 10:21:00,66.6,61.6,29.84,South,190,1.0,1.0,84,0.00,,,0.00,Wunderground v.1.15,2013-05-10 14:21:00,
2013-05-10 10:23:00,66.6,61.6,29.84,SSW,205,0.0,3.0,84,0.00,,,0.00,Wunderground v.1.15,2013-05-10 14:23:00,
2013-05-10 10:26:00,66.5,61.5,29.84,SSW,194,2.0,3.0,84,0.00,,,0.00,Wunderground v.1.15,2013-05-10 14:26:00,
2013-05-10 10:28:00,66.5,61.5,29.84,SSW,194,0.0,3.0,84,0.00,,,0.00,Wunderground v.1.15,2013-05-10 14:28:00,
2013-05-10 10:31:00,66.4,61.4,29.84,SSW,194,0.0,0.0,84,0.00,,,0.00,Wunderground v.1.15,2013-05-10 14:31:00,
2013-05-10 10:32:00,66.4,61.4,29.84,SSW,194,0.0,0.0,84,0.00,,,0.00,Wunderground v.1.15,2013-05-10 14:32:00,
2013-05-10 10:33:00,66.4,61.4,29.84,SSW,192,3.0,3.0,84,0.00,,,0.00,Wunderground v.1.15,2013-05-10 14:33:00,
2013-05-10 10:36:00,66.5,61.5,29.84,SSW,192,0.0,3.0,84,0.00,,,0.00,Wunderground v.1.15,2013-05-10 14:36:00,
2013-05-10 10:37:00,66.5,61.5,29.84,SSW,192,0.0,3.0,84,0.00,,,0.00,Wunderground v.1.15,2013-05-10 14:37:00,
2013-05-10 10:38:00,66.5,61.5,29.84,SSW,192,0.0,3.0,84,0.00,,,0.00,Wunderground v.1.15,2013-05-10 14:38:00,
2013-05-10 10:39:00,66.5,61.5,29.84,SSW,192,0.0,3.0,84,0.00,,,0.00,Wunderground v.1.15,2013-05-10 14:39:00,
2013-05-10 10:41:00,66.6,61.6,29.84,SSW,192,0.0,0.0,84,0.00,,,0.00,Wunderground v.1.15,2013-05-10 14:41:00,
2013-05-10 10:42:00,66.6,61.6,29.84,SSW,192,0.0,0.0,84,0.00,,,0.00,Wunderground v.1.15,2013-05-10 14:42:00,
2013-05-10 10:43:00,66.6,61.6,29.84,SSW,193,4.0,4.0,84,0.00,,,0.00,Wunderground v.1.15,2013-05-10 14:43:00,
2013-05-10 10:44:00,66.6,61.6,29.84,SSW,193,0.0,4.0,84,0.00,,,0.00,Wunderground v.1.15,2013-05-10 14:44:00,
2013-05-10 10:46:00,66.6,61.6,29.84,SSW,197,0.0,4.0,84,0.00,,,0.00,Wunderground v.1.15,2013-05-10 14:46:00,
2013-05-10 10:47:00,66.7,61.7,29.84,SSW,198,0.0,4.0,84,0.00,,,0.00,Wunderground v.1.15,2013-05-10 14:47:00,
2013-05-10 10:48:00,66.7,61.7,29.84,SSW,198,0.0,4.0,84,0.00,,,0.00,Wunderground v.1.15,2013-05-10 14:48:00,
2013-05-10 10:49:00,66.7,61.7,29.84,SSW,198,0.0,4.0,84,0.00,,,0.00,Wunderground v.1.15,2013-05-10 14:49:00,
2013-05-10 10:50:00,66.7,61.7,29.84,SSW,198,0.0,0.0,84,0.00,,,0.00,Wunderground v.1.15,2013-05-10 14:50:00,
2013-05-10 10:51:00,66.8,62.1,29.84,SSW,198,0.0,0.0,85,0.00,,,0.00,Wunderground v.1.15,2013-05-10 14:51:00,
2013-05-10 10:52:00,66.9,62.2,29.84,SSW,198,0.0,1.0,85,0.00,,,0.00,Wunderground v.1.15,2013-05-10 14:52:00,
2013-05-10 10:53:00,66.9,61.9,29.84,SSW,198,0.0,1.0,84,0.00,,,0.00,Wunderground v.1.15,2013-05-10 14:53:00,
2013-05-10 10:55:00,66.9,61.9,29.84,SSW,198,0.0,1.0,84,0.00,,,0.00,Wunderground v.1.15,2013-05-10 14:55:00,
2013-05-10 10:56:00,66.9,61.9,29.84,South,187,0.0,7.0,84,0.00,,,0.00,Wunderground v.1.15,2013-05-10 14:56:00,
2013-05-10 10:57:00,66.9,61.9,29.84,South,187,0.0,7.0,84,0.00,,,0.00,Wunderground v.1.15,2013-05-10 14:57:00,
2013-05-10 10:58:00,67.0,62.0,29.84,South,187,0.0,7.0,84,0.00,,,0.00,Wunderground v.1.15,2013-05-10 14:58:00,
2013-05-10 11:00:00,67.0,62.0,29.84,South,190,0.0,0.0,84,0.00,,,0.00,Wunderground v.1.15,2013-05-10 15:00:00,
2013-05-10 11:01:00,67.0,62.0,29.84,SSW,194,0.0,0.0,84,0.00,,,0.00,Wunderground v.1.15,2013-05-10 15:01:00,
2013-05-10 11:03:00,67.0,62.0,29.84,SSW,194,0.0,0.0,84,0.00,,,0.00,Wunderground v.1.15,2013-05-10 15:03:00,
2013-05-10 11:04:00,67.0,62.0,29.84,SSW,194,0.0,0.0,84,0.00,,,0.00,Wunderground v.1.15,2013-05-10 15:04:00,
2013-05-10 11:05:00,67.1,62.1,29.84,SSW,198,0.0,1.0,84,0.00,,,0.00,Wunderground v.1.15,2013-05-10 15:05:00,
2013-05-10 11:06:00,67.1,62.1,29.84,SSW,198,0.0,1.0,84,0.00,,,0.00,Wunderground v.1.15,2013-05-10 15:06:00,
2013-05-10 11:08:00,67.1,62.1,29.84,SW,217,0.0,4.0,84,0.00,,,0.00,Wunderground v.1.15,2013-05-10 15:08:00,
2013-05-10 11:09:00,67.1,62.1,29.84,SW,217,0.0,4.0,84,0.00,,,0.00,Wunderground v.1.15,2013-05-10 15:09:00,
2013-05-10 11:10:00,67.1,62.1,29.84,SW,217,0.0,3.0,84,0.00,,,0.00,Wunderground v.1.15,2013-05-10 15:10:00,
2013-05-10 11:11:00,67.1,62.1,29.84,SW,217,0.0,3.0,84,0.00,,,0.00,Wunderground v.1.15,2013-05-10 15:11:00,
2013-05-10 11:13:00,67.1,62.1,29.84,SW,217,0.0,3.0,84,0.00,,,0.00,Wunderground v.1.15,2013-05-10 15:13:00,
2013-05-10 11:14:00,67.1,62.1,29.84,SW,217,0.0,3.0,84,0.00,,,0.00,Wunderground v.1.15,2013-05-10 15:14:00,
2013-05-10 11:15:00,67.1,62.1,29.84,SW,217,0.0,3.0,84,0.00,,,0.00,Wunderground v.1.15,2013-05-10 15:15:00,
2013-05-10 11:16:00,67.1,62.1,29.84,SW,217,0.0,3.0,84,0.00,,,0.00,Wunderground v.1.15,2013-05-10 15:16:00,
2013-05-10 11:18:00,67.1,62.1,29.84,SW,217,0.0,3.0,84,0.00,,,0.00,Wunderground v.1.15,2013-05-10 15:18:00,
2013-05-10 11:19:00,67.1,62.1,29.84,SW,217,0.0,3.0,84,0.00,,,0.00,Wunderground v.1.15,2013-05-10 15:19:00,
2013-05-10 11:20:00,67.1,62.4,29.84,SW,217,0.0,0.0,85,0.00,,,0.00,Wunderground v.1.15,2013-05-10 15:20:00,
2013-05-10 11:21:00,67.1,62.1,29.84,SSW,208,0.0,3.0,84,0.00,,,0.00,Wunderground v.1.15,2013-05-10 15:21:00,
2013-05-10 11:23:00,66.9,61.9,29.84,South,183,0.0,5.0,84,0.00,,,0.01,Wunderground v.1.15,2013-05-10 15:23:00,
2013-05-10 11:25:00,66.8,61.8,29.84,South,183,0.0,5.0,84,0.00,,,0.01,Wunderground v.1.15,2013-05-10 15:25:00,
2013-05-10 11:26:00,66.7,62.0,29.84,SSW,194,0.0,7.0,85,0.00,,,0.01,Wunderground v.1.15,2013-05-10 15:26:00,
2013-05-10 11:29:00,66.6,61.9,29.84,South,180,0.0,8.0,85,0.00,,,0.01,Wunderground v.1.15,2013-05-10 15:29:00,
2013-05-10 11:30:00,66.6,61.9,29.84,South,180,0.0,1.0,85,0.00,,,0.01,Wunderground v.1.15,2013-05-10 15:30:00,
2013-05-10 11:31:00,66.5,61.8,29.84,South,171,0.0,5.0,85,0.00,,,0.01,Wunderground v.1.15,2013-05-10 15:31:00,
2013-05-10 11:34:00,66.4,61.4,29.85,SSW,195,7.0,18.0,84,0.00,,,0.01,Wunderground v.1.15,2013-05-10 15:34:00,
2013-05-10 11:35:00,66.4,61.4,29.85,SSW,194,1.0,18.0,84,0.00,,,0.01,Wunderground v.1.15,2013-05-10 15:35:00,
2013-05-10 11:36:00,66.4,61.8,29.85,SW,225,6.0,18.0,85,0.00,,,0.01,Wunderground v.1.15,2013-05-10 15:36:00,
2013-05-10 11:37:00,66.3,61.7,29.85,SW,222,6.0,18.0,85,0.00,,,0.01,Wunderground v.1.15,2013-05-10 15:37:00,
2013-05-10 11:39:00,66.2,61.6,29.85,SSW,213,0.0,18.0,85,0.00,,,0.01,Wunderground v.1.15,2013-05-10 15:39:00,
2013-05-10 11:40:00,66.2,61.6,29.85,SW,223,1.0,4.0,85,0.00,,,0.01,Wunderground v.1.15,2013-05-10 15:40:00,
2013-05-10 11:41:00,66.1,61.5,29.85,SSW,208,11.0,11.0,85,0.00,,,0.01,Wunderground v.1.15,2013-05-10 15:41:00,
2013-05-10 11:42:00,66.0,61.4,29.85,ENE,69,1.0,11.0,85,0.00,,,0.02,Wunderground v.1.15,2013-05-10 15:42:00,
2013-05-10 11:45:00,65.8,61.5,29.85,WSW,253,2.0,15.0,86,0.00,,,0.02,Wunderground v.1.15,2013-05-10 15:45:00,
2013-05-10 11:46:00,65.6,61.3,29.86,SSW,200,3.0,15.0,86,0.14,,,0.03,Wunderground v.1.15,2013-05-10 15:46:00,
2013-05-10 11:47:00,65.5,61.2,29.86,South,188,7.0,15.0,86,0.14,,,0.03,Wunderground v.1.15,2013-05-10 15:47:00,
2013-05-10 11:48:00,65.4,61.1,29.86,South,177,2.0,15.0,86,0.14,,,0.03,Wunderground v.1.15,2013-05-10 15:48:00,
2013-05-10 11:50:00,64.9,60.6,29.86,WSW,258,1.0,9.0,86,0.24,,,0.04,Wunderground v.1.15,2013-05-10 15:50:00,
2013-05-10 11:51:00,64.6,60.3,29.85,SW,215,13.0,13.0,86,0.23,,,0.05,Wunderground v.1.15,2013-05-10 15:51:00,
2013-05-10 11:52:00,64.5,60.5,29.85,South,178,3.0,14.0,87,0.23,,,0.05,Wunderground v.1.15,2013-05-10 15:52:00,
2013-05-10 11:53:00,64.2,60.2,29.85,SW,235,1.0,14.0,87,0.23,,,0.05,Wunderground v.1.15,2013-05-10 15:53:00,
2013-05-10 11:55:00,63.9,60.0,29.85,SW,219,15.0,22.0,87,0.25,,,0.06,Wunderground v.1.15,2013-05-10 15:55:00,
2013-05-10 11:56:00,63.8,59.9,29.85,SW,223,5.0,22.0,87,0.21,,,0.06,Wunderground v.1.15,2013-05-10 15:56:00,
2013-05-10 11:58:00,63.5,59.9,29.85,West,273,3.0,22.0,88,0.12,,,0.06,Wunderground v.1.15,2013-05-10 15:58:00,
2013-05-10 12:01:00,63.3,59.7,29.86,SW,219,4.0,12.0,88,0.09,,,0.07,Wunderground v.1.15,2013-05-10 16:01:00,
2013-05-10 12:02:00,63.2,59.6,29.86,SW,224,7.0,12.0,88,0.09,,,0.07,Wunderground v.1.15,2013-05-10 16:02:00,
2013-05-10 12:03:00,63.2,59.9,29.86,WSW,246,5.0,12.0,89,0.23,,,0.08,Wunderground v.1.15,2013-05-10 16:03:00,
2013-05-10 12:06:00,63.0,59.7,29.86,SW,220,4.0,17.0,89,0.16,,,0.08,Wunderground v.1.15,2013-05-10 16:06:00,
2013-05-10 12:07:00,63.0,59.7,29.86,SW,215,11.0,17.0,89,0.14,,,0.09,Wunderground v.1.15,2013-05-10 16:07:00,
2013-05-10 12:08:00,63.0,59.7,29.86,SW,231,5.0,17.0,89,0.14,,,0.09,Wunderground v.1.15,2013-05-10 16:08:00,
2013-05-10 12:11:00,62.9,59.6,29.86,SW,218,6.0,11.0,89,0.20,,,0.10,Wunderground v.1.15,2013-05-10 16:11:00,
2013-05-10 12:13:00,62.9,59.6,29.86,South,184,5.0,11.0,89,0.19,,,0.10,Wunderground v.1.15,2013-05-10 16:13:00,
2013-05-10 12:16:00,62.9,59.9,29.86,SW,225,10.0,12.0,90,0.12,,,0.11,Wunderground v.1.15,2013-05-10 16:16:00,
2013-05-10 12:18:00,62.9,59.9,29.86,SSW,213,2.0,12.0,90,0.12,,,0.11,Wunderground v.1.15,2013-05-10 16:18:00,
2013-05-10 12:19:00,62.9,59.9,29.86,SW,215,7.0,12.0,90,0.12,,,0.11,Wunderground v.1.15,2013-05-10 16:19:00,
2013-05-10 12:21:00,62.8,59.8,29.86,SSW,212,4.0,9.0,90,0.13,,,0.12,Wunderground v.1.15,2013-05-10 16:21:00,
2013-05-10 12:24:00,62.9,59.9,29.86,West,271,1.0,9.0,90,0.13,,,0.12,Wunderground v.1.15,2013-05-10 16:24:00,
2013-05-10 12:26:00,62.9,59.9,29.86,South,190,3.0,9.0,90,0.08,,,0.12,Wunderground v.1.15,2013-05-10 16:26:00,
2013-05-10 12:27:00,62.9,59.9,29.86,SSW,196,1.0,9.0,90,0.08,,,0.12,Wunderground v.1.15,2013-05-10 16:27:00,
2013-05-10 12:29:00,62.9,59.9,29.86,SW,236,1.0,9.0,90,0.07,,,0.13,Wunderground v.1.15,2013-05-10 16:29:00,
2013-05-10 12:32:00,63.0,60.0,29.86,SW,216,2.0,9.0,90,0.07,,,0.13,Wunderground v.1.15,2013-05-10 16:32:00,
2013-05-10 12:34:00,63.0,60.0,29.86,SW,229,0.0,9.0,90,0.12,,,0.14,Wunderground v.1.15,2013-05-10 16:34:00,
2013-05-10 12:37:00,63.0,60.3,29.86,SSW,213,3.0,9.0,91,0.12,,,0.14,Wunderground v.1.15,2013-05-10 16:37:00,
2013-05-10 12:39:00,63.1,60.4,29.86,SW,214,5.0,9.0,91,0.10,,,0.14,Wunderground v.1.15,2013-05-10 16:39:00,
2013-05-10 12:42:00,63.0,60.3,29.86,SW,236,4.0,7.0,91,0.07,,,0.14,Wunderground v.1.15,2013-05-10 16:42:00,
2013-05-10 12:43:00,63.0,60.3,29.86,SSW,213,0.0,8.0,91,0.06,,,0.14,Wunderground v.1.15,2013-05-10 16:43:00,
2013-05-10 12:44:00,63.0,60.3,29.86,SW,221,3.0,8.0,91,0.05,,,0.14,Wunderground v.1.15,2013-05-10 16:44:00,
2013-05-10 12:45:00,63.0,60.3,29.86,SW,229,3.0,8.0,91,0.05,,,0.14,Wunderground v.1.15,2013-05-10 16:45:00,
2013-05-10 12:47:00,63.0,60.3,29.86,WSW,238,3.0,8.0,91,0.04,,,0.15,Wunderground v.1.15,2013-05-10 16:47:00,
2013-05-10 12:48:00,63.0,60.3,29.86,WSW,256,2.0,8.0,91,0.04,,,0.15,Wunderground v.1.15,2013-05-10 16:48:00,
2013-05-10 12:49:00,63.0,60.3,29.86,SW,231,4.0,4.0,91,0.04,,,0.15,Wunderground v.1.15,2013-05-10 16:49:00,
2013-05-10 12:50:00,63.1,60.4,29.86,SW,231,4.0,4.0,91,0.04,,,0.15,Wunderground v.1.15,2013-05-10 16:50:00,
2013-05-10 12:53:00,63.1,60.4,29.86,SSW,210,5.0,7.0,91,0.04,,,0.15,Wunderground v.1.15,2013-05-10 16:53:00,
2013-05-10 12:54:00,63.1,60.4,29.86,SW,214,0.0,7.0,91,0.04,,,0.15,Wunderground v.1.15,2013-05-10 16:54:00,
2013-05-10 12:55:00,63.2,60.5,29.86,SW,214,0.0,7.0,91,0.04,,,0.15,Wunderground v.1.15,2013-05-10 16:55:00,
2013-05-10 12:58:00,63.2,60.5,29.86,SW,223,0.0,7.0,91,0.04,,,0.15,Wunderground v.1.15,2013-05-10 16:58:00,
2013-05-10 13:00:00,63.2,60.5,29.86,South,190,1.0,1.0,91,0.05,,,0.16,Wunderground v.1.15,2013-05-10 17:00:00,
2013-05-10 13:03:00,63.3,60.6,29.86,SW,227,2.0,5.0,91,0.05,,,0.16,Wunderground v.1.15,2013-05-10 17:03:00,
2013-05-10 13:05:00,63.3,60.6,29.85,SW,224,0.0,5.0,91,0.05,,,0.16,Wunderground v.1.15,2013-05-10 17:05:00,
2013-05-10 13:08:00,63.4,60.7,29.85,SW,228,0.0,7.0,91,0.05,,,0.16,Wunderground v.1.15,2013-05-10 17:08:00,
2013-05-10 13:09:00,63.4,60.7,29.85,SSW,202,5.0,7.0,91,0.05,,,0.16,Wunderground v.1.15,2013-05-10 17:09:00,
2013-05-10 13:10:00,63.4,60.7,29.85,SW,229,4.0,7.0,91,0.05,,,0.16,Wunderground v.1.15,2013-05-10 17:10:00,
2013-05-10 13:11:00,63.4,60.7,29.85,WSW,242,1.0,7.0,91,0.05,,,0.16,Wunderground v.1.15,2013-05-10 17:11:00,
2013-05-10 13:13:00,63.4,60.7,29.85,South,181,6.0,7.0,91,0.05,,,0.17,Wunderground v.1.15,2013-05-10 17:13:00,
2013-05-10 13:14:00,63.4,60.7,29.85,SSW,208,7.0,8.0,91,0.05,,,0.17,Wunderground v.1.15,2013-05-10 17:14:00,
2013-05-10 13:15:00,63.4,60.7,29.85,SW,225,2.0,8.0,91,0.05,,,0.17,Wunderground v.1.15,2013-05-10 17:15:00,
2013-05-10 13:16:00,63.4,60.7,29.84,SW,225,0.0,8.0,91,0.05,,,0.17,Wunderground v.1.15,2013-05-10 17:16:00,
2013-05-10 13:19:00,63.4,60.7,29.85,SW,230,4.0,8.0,91,0.05,,,0.17,Wunderground v.1.15,2013-05-10 17:19:00,
2013-05-10 13:21:00,63.5,60.8,29.84,SW,230,0.0,5.0,91,0.05,,,0.17,Wunderground v.1.15,2013-05-10 17:21:00,
2013-05-10 13:24:00,63.5,61.1,29.84,SSW,210,4.0,6.0,92,0.06,,,0.18,Wunderground v.1.15,2013-05-10 17:24:00,
2013-05-10 13:26:00,63.6,61.2,29.84,SW,228,3.0,6.0,92,0.06,,,0.18,Wunderground v.1.15,2013-05-10 17:26:00,
2013-05-10 13:29:00,63.6,61.2,29.84,SSW,211,3.0,9.0,92,0.06,,,0.18,Wunderground v.1.15,2013-05-10 17:29:00,
2013-05-10 13:31:00,63.5,61.1,29.84,SW,225,5.0,6.0,92,0.06,,,0.18,Wunderground v.1.15,2013-05-10 17:31:00,
2013-05-10 13:34:00,63.5,61.1,29.84,SW,224,2.0,12.0,92,0.05,,,0.18,Wunderground v.1.15,2013-05-10 17:34:00,
2013-05-10 13:35:00,63.5,61.1,29.84,WSW,242,3.0,12.0,92,0.05,,,0.18,Wunderground v.1.15,2013-05-10 17:35:00,
2013-05-10 13:36:00,63.5,61.1,29.84,SSW,197,2.0,12.0,92,0.04,,,0.18,Wunderground v.1.15,2013-05-10 17:36:00,
2013-05-10 13:37:00,63.5,61.1,29.84,SW,225,4.0,12.0,92,0.04,,,0.18,Wunderground v.1.15,2013-05-10 17:37:00,
2013-05-10 13:39:00,63.6,61.2,29.84,SW,224,0.0,12.0,92,0.04,,,0.19,Wunderground v.1.15,2013-05-10 17:39:00,
2013-05-10 13:40:00,63.6,61.2,29.84,SSW,212,3.0,4.0,92,0.04,,,0.19,Wunderground v.1.15,2013-05-10 17:40:00,
2013-05-10 13:41:00,63.7,61.3,29.84,WSW,246,0.0,7.0,92,0.04,,,0.19,Wunderground v.1.15,2013-05-10 17:41:00,
2013-05-10 13:42:00,63.8,61.4,29.84,WSW,238,1.0,7.0,92,0.04,,,0.19,Wunderground v.1.15,2013-05-10 17:42:00,
2013-05-10 13:44:00,63.8,61.4,29.84,SW,215,0.0,7.0,92,0.04,,,0.19,Wunderground v.1.15,2013-05-10 17:44:00,
2013-05-10 13:45:00,63.9,61.5,29.84,SW,215,4.0,7.0,92,0.04,,,0.19,Wunderground v.1.15,2013-05-10 17:45:00,
2013-05-10 13:47:00,63.8,61.4,29.84,SW,229,6.0,8.0,92,0.04,,,0.19,Wunderground v.1.15,2013-05-10 17:47:00,
2013-05-10 13:48:00,63.8,61.4,29.84,SW,219,2.0,8.0,92,0.04,,,0.19,Wunderground v.1.15,2013-05-10 17:48:00,
2013-05-10 13:49:00,63.8,61.4,29.84,SW,215,3.0,8.0,92,0.04,,,0.19,Wunderground v.1.15,2013-05-10 17:49:00,
2013-05-10 13:50:00,63.8,61.4,29.84,West,260,4.0,6.0,92,0.04,,,0.19,Wunderground v.1.15,2013-05-10 17:50:00,
2013-05-10 13:52:00,63.8,61.4,29.84,SW,225,3.0,8.0,92,0.05,,,0.20,Wunderground v.1.15,2013-05-10 17:52:00,
2013-05-10 13:53:00,63.7,61.3,29.84,SW,226,0.0,8.0,92,0.05,,,0.20,Wunderground v.1.15,2013-05-10 17:53:00,
2013-05-10 13:54:00,63.7,61.3,29.84,WNW,299,0.0,8.0,92,0.05,,,0.20,Wunderground v.1.15,2013-05-10 17:54:00,
2013-05-10 13:55:00,63.7,61.3,29.84,SW,232,0.0,8.0,92,0.05,,,0.20,Wunderground v.1.15,2013-05-10 17:55:00,
2013-05-10 13:57:00,63.8,61.4,29.84,SW,217,4.0,8.0,92,0.05,,,0.20,Wunderground v.1.15,2013-05-10 17:57:00,
2013-05-10 13:58:00,63.8,61.4,29.84,SSW,200,3.0,8.0,92,0.05,,,0.20,Wunderground v.1.15,2013-05-10 17:58:00,
2013-05-10 13:59:00,63.8,61.4,29.84,SSW,194,3.0,8.0,92,0.05,,,0.20,Wunderground v.1.15,2013-05-10 17:59:00,
2013-05-10 14:00:00,63.8,61.4,29.84,SW,231,2.0,8.0,92,0.05,,,0.20,Wunderground v.1.15,2013-05-10 18:00:00,
2013-05-10 14:02:00,63.7,61.3,29.84,SW,229,5.0,8.0,92,0.05,,,0.20,Wunderground v.1.15,2013-05-10 18:02:00,
2013-05-10 14:03:00,63.8,61.4,29.84,SW,225,6.0,8.0,92,0.05,,,0.20,Wunderground v.1.15,2013-05-10 18:03:00,
2013-05-10 14:05:00,63.8,61.4,29.84,SW,224,3.0,8.0,92,0.05,,,0.20,Wunderground v.1.15,2013-05-10 18:05:00,
2013-05-10 14:07:00,63.7,61.3,29.84,NW,306,3.0,8.0,92,0.05,,,0.21,Wunderground v.1.15,2013-05-10 18:07:00,
2013-05-10 14:08:00,63.7,61.3,29.84,SW,216,0.0,8.0,92,0.05,,,0.21,Wunderground v.1.15,2013-05-10 18:08:00,
2013-05-10 14:10:00,63.7,61.3,29.84,SW,228,0.0,2.0,92,0.05,,,0.21,Wunderground v.1.15,2013-05-10 18:10:00,
2013-05-10 14:12:00,63.8,61.4,29.84,SW,225,0.0,4.0,92,0.05,,,0.21,Wunderground v.1.15,2013-05-10 18:12:00,
2013-05-10 14:13:00,63.8,61.4,29.84,SW,225,0.0,4.0,92,0.05,,,0.21,Wunderground v.1.15,2013-05-10 18:13:00,
2013-05-10 14:15:00,63.8,61.4,29.83,SW,227,0.0,4.0,92,0.06,,,0.22,Wunderground v.1.15,2013-05-10 18:15:00,
2013-05-10 14:18:00,63.8,61.4,29.83,SW,217,2.0,4.0,92,0.06,,,0.22,Wunderground v.1.15,2013-05-10 18:18:00,
2013-05-10 14:19:00,63.9,61.5,29.83,SW,221,3.0,5.0,92,0.06,,,0.22,Wunderground v.1.15,2013-05-10 18:19:00,
2013-05-10 14:20:00,63.9,61.5,29.83,SW,227,0.0,1.0,92,0.06,,,0.22,Wunderground v.1.15,2013-05-10 18:20:00,
2013-05-10 14:23:00,63.7,61.3,29.83,SW,215,0.0,4.0,92,0.06,,,0.22,Wunderground v.1.15,2013-05-10 18:23:00,
2013-05-10 14:24:00,63.7,61.3,29.83,SW,215,0.0,4.0,92,0.07,,,0.23,Wunderground v.1.15,2013-05-10 18:24:00,
2013-05-10 14:25:00,63.6,61.2,29.83,SW,227,0.0,6.0,92,0.39,,,0.24,Wunderground v.1.15,2013-05-10 18:25:00,
2013-05-10 14:28:00,63.6,61.2,29.83,NW,310,0.0,6.0,92,0.19,,,0.25,Wunderground v.1.15,2013-05-10 18:28:00,
2013-05-10 14:29:00,63.5,61.1,29.83,NW,310,0.0,6.0,92,0.19,,,0.25,Wunderground v.1.15,2013-05-10 18:29:00,
2013-05-10 14:30:00,63.5,61.1,29.83,SW,217,0.0,0.0,92,0.32,,,0.26,Wunderground v.1.15,2013-05-10 18:30:00,
2013-05-10 14:31:00,63.5,61.1,29.83,SW,228,0.0,2.0,92,0.32,,,0.26,Wunderground v.1.15,2013-05-10 18:31:00,
2013-05-10 14:33:00,63.5,61.1,29.84,SW,236,0.0,6.0,92,0.16,,,0.26,Wunderground v.1.15,2013-05-10 18:33:00,
2013-05-10 14:34:00,63.5,61.1,29.84,SW,236,0.0,6.0,92,0.13,,,0.26,Wunderground v.1.15,2013-05-10 18:34:00,
2013-05-10 14:36:00,63.5,61.1,29.83,SW,226,0.0,7.0,92,0.13,,,0.27,Wunderground v.1.15,2013-05-10 18:36:00,
2013-05-10 14:38:00,63.6,61.2,29.83,SW,227,0.0,7.0,92,0.22,,,0.28,Wunderground v.1.15,2013-05-10 18:38:00,
2013-05-10 14:39:00,63.6,61.2,29.83,SW,227,3.0,7.0,92,0.22,,,0.28,Wunderground v.1.15,2013-05-10 18:39:00,
2013-05-10 14:41:00,63.7,61.3,29.83,SW,234,0.0,6.0,92,0.17,,,0.28,Wunderground v.1.15,2013-05-10 18:41:00,
2013-05-10 14:44:00,63.8,61.4,29.83,SW,234,0.0,6.0,92,0.10,,,0.29,Wunderground v.1.15,2013-05-10 18:44:00,
2013-05-10 14:45:00,63.8,61.4,29.83,SW,214,0.0,6.0,92,0.10,,,0.29,Wunderground v.1.15,2013-05-10 18:45:00,
2013-05-10 14:46:00,63.8,61.4,29.83,SW,214,0.0,6.0,92,0.10,,,0.29,Wunderground v.1.15,2013-05-10 18:46:00,
2013-05-10 14:49:00,63.8,61.4,29.83,SSW,193,0.0,6.0,92,0.10,,,0.29,Wunderground v.1.15,2013-05-10 18:49:00,
2013-05-10 14:50:00,63.8,61.4,29.83,West,263,3.0,3.0,92,0.10,,,0.30,Wunderground v.1.15,2013-05-10 18:50:00,
2013-05-10 14:51:00,63.8,61.4,29.82,WSW,251,0.0,4.0,92,0.10,,,0.30,Wunderground v.1.15,2013-05-10 18:51:00,
2013-05-10 14:54:00,63.8,61.4,29.82,SSW,213,0.0,5.0,92,0.14,,,0.31,Wunderground v.1.15,2013-05-10 18:54:00,
2013-05-10 14:55:00,63.8,61.4,29.82,SSW,213,0.0,5.0,92,0.14,,,0.31,Wunderground v.1.15,2013-05-10 18:55:00,
2013-05-10 14:56:00,63.8,61.4,29.82,SSE,168,0.0,5.0,92,0.14,,,0.31,Wunderground v.1.15,2013-05-10 18:56:00,
2013-05-10 14:59:00,63.7,61.3,29.82,SW,235,0.0,7.0,92,0.50,,,0.33,Wunderground v.1.15,2013-05-10 18:59:00,
2013-05-10 15:00:00,63.7,61.3,29.82,SW,235,0.0,1.0,92,0.29,,,0.33,Wunderground v.1.15,2013-05-10 19:00:00,
2013-05-10 15:01:00,63.6,61.2,29.82,SW,235,0.0,1.0,92,0.28,,,0.34,Wunderground v.1.15,2013-05-10 19:01:00,
2013-05-10 15:02:00,63.6,61.2,29.82,SW,235,3.0,4.0,92,0.28,,,0.34,Wunderground v.1.15,2013-05-10 19:02:00,
2013-05-10 15:04:00,63.6,61.2,29.82,SSW,204,0.0,5.0,92,0.19,,,0.35,Wunderground v.1.15,2013-05-10 19:04:00,
2013-05-10 15:05:00,63.6,61.2,29.82,SW,215,2.0,5.0,92,0.19,,,0.35,Wunderground v.1.15,2013-05-10 19:05:00,
2013-05-10 15:06:00,63.6,61.2,29.82,SW,222,2.0,8.0,92,0.19,,,0.35,Wunderground v.1.15,2013-05-10 19:06:00,
2013-05-10 15:07:00,63.6,61.2,29.82,SSE,152,0.0,8.0,92,0.16,,,0.36,Wunderground v.1.15,2013-05-10 19:07:00,
2013-05-10 15:10:00,63.6,61.2,29.82,SW,229,0.0,1.0,92,0.16,,,0.36,Wunderground v.1.15,2013-05-10 19:10:00,
2013-05-10 15:11:00,63.6,61.2,29.82,SW,222,3.0,4.0,92,0.15,,,0.37,Wunderground v.1.15,2013-05-10 19:11:00,
2013-05-10 15:12:00,63.6,61.2,29.82,SW,230,0.0,5.0,92,0.15,,,0.37,Wunderground v.1.15,2013-05-10 19:12:00,
2013-05-10 15:15:00,63.5,61.1,29.81,South,188,0.0,6.0,92,0.17,,,0.38,Wunderground v.1.15,2013-05-10 19:15:00,
2013-05-10 15:16:00,63.5,61.1,29.81,SSW,210,2.0,6.0,92,0.17,,,0.38,Wunderground v.1.15,2013-05-10 19:16:00,
2013-05-10 15:18:00,63.6,61.2,29.81,SSW,211,0.0,6.0,92,0.17,,,0.38,Wunderground v.1.15,2013-05-10 19:18:00,
2013-05-10 15:20:00,63.7,61.3,29.81,SW,225,0.0,1.0,92,0.12,,,0.39,Wunderground v.1.15,2013-05-10 19:20:00,
2013-05-10 15:21:00,63.7,61.3,29.81,SW,225,0.0,1.0,92,0.12,,,0.39,Wunderground v.1.15,2013-05-10 19:21:00,
2013-05-10 15:23:00,63.8,61.4,29.81,SW,225,0.0,1.0,92,0.12,,,0.39,Wunderground v.1.15,2013-05-10 19:23:00,
2013-05-10 15:25:00,63.8,61.7,29.81,SW,225,0.0,1.0,93,0.11,,,0.40,Wunderground v.1.15,2013-05-10 19:25:00,
2013-05-10 15:26:00,63.8,61.7,29.81,SW,225,0.0,1.0,93,0.11,,,0.40,Wunderground v.1.15,2013-05-10 19:26:00,
2013-05-10 15:27:00,63.9,61.8,29.80,SW,225,0.0,1.0,93,0.11,,,0.40,Wunderground v.1.15,2013-05-10 19:27:00,
2013-05-10 15:28:00,63.9,61.8,29.80,SW,227,5.0,10.0,93,0.11,,,0.40,Wunderground v.1.15,2013-05-10 19:28:00,
2013-05-10 15:30:00,63.6,61.2,29.80,SW,234,1.0,6.0,92,0.10,,,0.40,Wunderground v.1.15,2013-05-10 19:30:00,
2013-05-10 15:31:00,63.6,61.2,29.80,SW,234,0.0,6.0,92,0.09,,,0.40,Wunderground v.1.15,2013-05-10 19:31:00,
2013-05-10 15:32:00,63.4,61.0,29.80,SW,221,7.0,10.0,92,0.09,,,0.41,Wunderground v.1.15,2013-05-10 19:32:00,
2013-05-10 15:33:00,63.3,60.9,29.80,SW,227,14.0,15.0,92,0.09,,,0.41,Wunderground v.1.15,2013-05-10 19:33:00,
2013-05-10 15:36:00,63.1,60.7,29.79,WSW,250,8.0,17.0,92,0.13,,,0.41,Wunderground v.1.15,2013-05-10 19:36:00,
2013-05-10 15:37:00,63.0,60.6,29.79,WSW,246,6.0,17.0,92,0.13,,,0.42,Wunderground v.1.15,2013-05-10 19:37:00,
2013-05-10 15:39:00,63.0,60.6,29.79,SSW,210,2.0,17.0,92,0.13,,,0.42,Wunderground v.1.15,2013-05-10 19:39:00,
2013-05-10 15:41:00,63.0,60.6,29.79,SW,225,4.0,10.0,92,0.11,,,0.42,Wunderground v.1.15,2013-05-10 19:41:00,
2013-05-10 15:42:00,63.0,60.6,29.79,SW,222,1.0,10.0,92,0.10,,,0.42,Wunderground v.1.15,2013-05-10 19:42:00,
2013-05-10 15:44:00,63.0,60.6,29.79,WSW,255,13.0,13.0,92,0.08,,,0.43,Wunderground v.1.15,2013-05-10 19:44:00,
2013-05-10 15:46:00,63.1,60.7,29.79,SW,234,3.0,13.0,92,0.08,,,0.43,Wunderground v.1.15,2013-05-10 19:46:00,
2013-05-10 15:47:00,63.1,60.7,29.79,SW,222,6.0,13.0,92,0.08,,,0.43,Wunderground v.1.15,2013-05-10 19:47:00,
2013-05-10 15:49:00,63.1,60.7,29.78,WNW,299,6.0,13.0,92,0.08,,,0.43,Wunderground v.1.15,2013-05-10 19:49:00,
2013-05-10 15:51:00,63.1,60.7,29.78,East,90,4.0,7.0,92,0.08,,,0.43,Wunderground v.1.15,2013-05-10 19:51:00,
2013-05-10 15:52:00,63.1,60.7,29.78,SE,136,0.0,7.0,92,0.07,,,0.43,Wunderground v.1.15,2013-05-10 19:52:00,
2013-05-10 15:53:00,63.1,60.7,29.79,SW,223,2.0,10.0,92,0.06,,,0.43,Wunderground v.1.15,2013-05-10 19:53:00,
2013-05-10 15:54:00,63.1,60.7,29.79,SSW,213,0.0,10.0,92,0.05,,,0.43,Wunderground v.1.15,2013-05-10 19:54:00,
2013-05-10 15:56:00,63.1,60.7,29.79,SW,230,1.0,10.0,92,0.05,,,0.43,Wunderground v.1.15,2013-05-10 19:56:00,
2013-05-10 15:57:00,63.1,60.7,29.79,SW,231,8.0,10.0,92,0.04,,,0.43,Wunderground v.1.15,2013-05-10 19:57:00,
2013-05-10 15:58:00,63.1,60.7,29.79,SW,225,7.0,10.0,92,0.04,,,0.43,Wunderground v.1.15,2013-05-10 19:58:00,
2013-05-10 15:59:00,63.1,60.7,29.78,SW,217,5.0,10.0,92,0.04,,,0.44,Wunderground v.1.15,2013-05-10 19:59:00,
2013-05-10 16:01:00,63.1,60.7,29.78,SSW,206,7.0,11.0,92,0.04,,,0.44,Wunderground v.1.15,2013-05-10 20:01:00,
2013-05-10 16:02:00,63.1,60.7,29.79,SW,234,4.0,11.0,92,0.04,,,0.44,Wunderground v.1.15,2013-05-10 20:02:00,
2013-05-10 16:03:00,63.1,60.7,29.79,SW,219,7.0,11.0,92,0.04,,,0.44,Wunderground v.1.15,2013-05-10 20:03:00,
2013-05-10 16:04:00,63.1,60.7,29.78,SSW,204,9.0,11.0,92,0.04,,,0.44,Wunderground v.1.15,2013-05-10 20:04:00,
2013-05-10 16:06:00,63.1,60.7,29.79,SSW,210,6.0,11.0,92,0.04,,,0.44,Wunderground v.1.15,2013-05-10 20:06:00,
2013-05-10 16:07:00,63.1,60.7,29.78,South,184,9.0,11.0,92,0.04,,,0.44,Wunderground v.1.15,2013-05-10 20:07:00,
2013-05-10 16:08:00,63.1,60.7,29.78,WSW,245,2.0,11.0,92,0.04,,,0.44,Wunderground v.1.15,2013-05-10 20:08:00,
2013-05-10 16:09:00,63.1,60.7,29.78,SW,221,5.0,11.0,92,0.04,,,0.44,Wunderground v.1.15,2013-05-10 20:09:00,
2013-05-10 16:12:00,63.1,60.7,29.78,SW,217,2.0,10.0,92,0.04,,,0.44,Wunderground v.1.15,2013-05-10 20:12:00,
2013-05-10 16:13:00,63.0,60.6,29.78,SSW,193,8.0,11.0,92,0.04,,,0.44,Wunderground v.1.15,2013-05-10 20:13:00,
2013-05-10 16:14:00,63.0,60.6,29.78,SSW,208,5.0,11.0,92,0.04,,,0.45,Wunderground v.1.15,2013-05-10 20:14:00,
2013-05-10 16:15:00,63.0,60.6,29.79,SSW,203,4.0,11.0,92,0.04,,,0.45,Wunderground v.1.15,2013-05-10 20:15:00,
2013-05-10 16:17:00,63.0,60.6,29.79,WSW,239,3.0,11.0,92,0.04,,,0.45,Wunderground v.1.15,2013-05-10 20:17:00,
2013-05-10 16:18:00,63.0,60.6,29.79,SSW,211,4.0,11.0,92,0.04,,,0.45,Wunderground v.1.15,2013-05-10 20:18:00,
2013-05-10 16:19:00,63.0,60.6,29.79,SW,218,1.0,11.0,92,0.04,,,0.45,Wunderground v.1.15,2013-05-10 20:19:00,
2013-05-10 16:20:00,63.0,60.6,29.78,SSW,206,4.0,5.0,92,0.04,,,0.45,Wunderground v.1.15,2013-05-10 20:20:00,
2013-05-10 16:22:00,63.0,60.6,29.78,SW,228,7.0,10.0,92,0.04,,,0.45,Wunderground v.1.15,2013-05-10 20:22:00,
2013-05-10 16:23:00,63.0,60.6,29.78,SSW,196,4.0,10.0,92,0.04,,,0.45,Wunderground v.1.15,2013-05-10 20:23:00,
2013-05-10 16:24:00,63.0,60.6,29.79,SW,229,3.0,10.0,92,0.04,,,0.45,Wunderground v.1.15,2013-05-10 20:24:00,
2013-05-10 16:25:00,63.0,60.6,29.79,SW,228,9.0,10.0,92,0.04,,,0.45,Wunderground v.1.15,2013-05-10 20:25:00,
2013-05-10 16:27:00,62.9,60.5,29.79,SW,236,2.0,10.0,92,0.05,,,0.46,Wunderground v.1.15,2013-05-10 20:27:00,
2013-05-10 16:29:00,62.9,60.5,29.79,WSW,245,0.0,10.0,92,0.05,,,0.46,Wunderground v.1.15,2013-05-10 20:29:00,
2013-05-10 16:30:00,62.9,60.5,29.79,SSW,210,0.0,5.0,92,0.05,,,0.46,Wunderground v.1.15,2013-05-10 20:30:00,
2013-05-10 16:32:00,62.9,60.5,29.78,SSW,212,7.0,8.0,92,0.05,,,0.46,Wunderground v.1.15,2013-05-10 20:32:00,
2013-05-10 16:34:00,62.9,60.5,29.78,WSW,239,5.0,9.0,92,0.05,,,0.46,Wunderground v.1.15,2013-05-10 20:34:00,
2013-05-10 16:35:00,62.9,60.5,29.78,SSW,210,3.0,9.0,92,0.05,,,0.46,Wunderground v.1.15,2013-05-10 20:35:00,
2013-05-10 16:37:00,62.8,60.4,29.79,SW,220,4.0,9.0,92,0.05,,,0.46,Wunderground v.1.15,2013-05-10 20:37:00,
2013-05-10 16:39:00,62.8,60.4,29.79,SSW,208,3.0,9.0,92,0.05,,,0.46,Wunderground v.1.15,2013-05-10 20:39:00,
2013-05-10 16:40:00,62.8,60.4,29.79,WSW,242,3.0,6.0,92,0.04,,,0.46,Wunderground v.1.15,2013-05-10 20:40:00,
2013-05-10 16:41:00,62.8,60.4,29.79,West,263,6.0,6.0,92,0.04,,,0.46,Wunderground v.1.15,2013-05-10 20:41:00,
2013-05-10 16:42:00,62.8,60.4,29.79,SW,214,3.0,7.0,92,0.04,,,0.46,Wunderground v.1.15,2013-05-10 20:42:00,
2013-05-10 16:45:00,62.8,60.4,29.79,SSW,208,7.0,7.0,92,0.00,,,0.46,Wunderground v.1.15,2013-05-10 20:45:00,
2013-05-10 16:46:00,62.8,60.4,29.79,West,279,0.0,7.0,92,0.00,,,0.46,Wunderground v.1.15,2013-05-10 20:46:00,
2013-05-10 16:48:00,62.9,60.5,29.78,SSW,196,4.0,7.0,92,0.00,,,0.46,Wunderground v.1.15,2013-05-10 20:48:00,
2013-05-10 16:50:00,62.8,60.4,29.79,SW,222,4.0,5.0,92,0.00,,,0.46,Wunderground v.1.15,2013-05-10 20:50:00,
2013-05-10 16:51:00,62.7,60.3,29.79,SW,229,6.0,12.0,92,0.00,,,0.46,Wunderground v.1.15,2013-05-10 20:51:00,
2013-05-10 16:53:00,62.7,60.3,29.79,SW,235,7.0,12.0,92,0.00,,,0.46,Wunderground v.1.15,2013-05-10 20:53:00,
2013-05-10 16:55:00,62.7,60.3,29.79,SSW,208,4.0,12.0,92,0.00,,,0.46,Wunderground v.1.15,2013-05-10 20:55:00,
2013-05-10 16:56:00,62.6,60.2,29.79,SSW,212,3.0,12.0,92,0.00,,,0.47,Wunderground v.1.15,2013-05-10 20:56:00,
2013-05-10 16:58:00,62.6,60.2,29.79,SW,216,5.0,12.0,92,0.00,,,0.47,Wunderground v.1.15,2013-05-10 20:58:00,
2013-05-10 16:59:00,62.6,60.2,29.79,SW,229,3.0,12.0,92,0.00,,,0.47,Wunderground v.1.15,2013-05-10 20:59:00,
2013-05-10 17:00:00,62.6,60.2,29.79,SW,227,0.0,5.0,92,0.00,,,0.47,Wunderground v.1.15,2013-05-10 21:00:00,
2013-05-10 17:01:00,62.7,60.3,29.79,SW,226,0.0,5.0,92,0.00,,,0.47,Wunderground v.1.15,2013-05-10 21:01:00,
2013-05-10 17:03:00,62.8,60.4,29.79,SW,228,4.0,8.0,92,0.00,,,0.47,Wunderground v.1.15,2013-05-10 21:03:00,
2013-05-10 17:04:00,62.7,60.3,29.79,SW,226,3.0,8.0,92,0.00,,,0.47,Wunderground v.1.15,2013-05-10 21:04:00,
2013-05-10 17:05:00,62.8,60.4,29.79,SW,231,5.0,8.0,92,0.00,,,0.47,Wunderground v.1.15,2013-05-10 21:05:00,
2013-05-10 17:07:00,62.8,60.4,29.79,SW,219,4.0,8.0,92,0.00,,,0.47,Wunderground v.1.15,2013-05-10 21:07:00,
2013-05-10 17:08:00,62.7,60.3,29.79,SW,221,1.0,8.0,92,0.00,,,0.47,Wunderground v.1.15,2013-05-10 21:08:00,
2013-05-10 17:09:00,62.8,60.4,29.79,SW,221,0.0,8.0,92,0.00,,,0.47,Wunderground v.1.15,2013-05-10 21:09:00,
2013-05-10 17:10:00,62.8,60.4,29.79,SSW,204,3.0,3.0,92,0.00,,,0.47,Wunderground v.1.15,2013-05-10 21:10:00,
2013-05-10 17:11:00,62.8,60.4,29.79,SSW,207,0.0,3.0,92,0.00,,,0.47,Wunderground v.1.15,2013-05-10 21:11:00,
2013-05-10 17:12:00,62.8,60.4,29.79,WSW,240,0.0,6.0,92,0.00,,,0.47,Wunderground v.1.15,2013-05-10 21:12:00,
2013-05-10 17:13:00,62.9,60.5,29.79,SW,229,4.0,6.0,92,0.00,,,0.47,Wunderground v.1.15,2013-05-10 21:13:00,
2013-05-10 17:14:00,62.9,60.5,29.79,WSW,258,0.0,6.0,92,0.00,,,0.47,Wunderground v.1.15,2013-05-10 21:14:00,
2013-05-10 17:15:00,62.9,60.5,29.79,SW,221,2.0,6.0,92,0.00,,,0.47,Wunderground v.1.15,2013-05-10 21:15:00,
2013-05-10 17:16:00,62.9,60.5,29.79,SW,221,0.0,6.0,92,0.00,,,0.47,Wunderground v.1.15,2013-05-10 21:16:00,
2013-05-10 17:17:00,62.9,60.5,29.79,SW,234,0.0,6.0,92,0.00,,,0.47,Wunderground v.1.15,2013-05-10 21:17:00,
2013-05-10 17:18:00,63.0,60.6,29.79,WSW,239,3.0,6.0,92,0.00,,,0.47,Wunderground v.1.15,2013-05-10 21:18:00,
2013-05-10 17:20:00,63.0,60.6,29.79,SW,223,0.0,2.0,92,0.00,,,0.47,Wunderground v.1.15,2013-05-10 21:20:00,
2013-05-10 17:21:00,63.0,60.6,29.79,WSW,250,2.0,5.0,92,0.00,,,0.47,Wunderground v.1.15,2013-05-10 21:21:00,
2013-05-10 17:23:00,63.0,60.6,29.78,WSW,250,0.0,5.0,92,0.00,,,0.47,Wunderground v.1.15,2013-05-10 21:23:00,
2013-05-10 17:24:00,63.0,60.6,29.79,SW,220,3.0,5.0,92,0.00,,,0.47,Wunderground v.1.15,2013-05-10 21:24:00,
2013-05-10 17:25:00,63.1,61.0,29.79,SW,217,0.0,5.0,93,0.00,,,0.47,Wunderground v.1.15,2013-05-10 21:25:00,
2013-05-10 17:26:00,63.1,61.0,29.79,SSW,213,0.0,5.0,93,0.00,,,0.47,Wunderground v.1.15,2013-05-10 21:26:00,
2013-05-10 17:28:00,63.1,61.0,29.79,SW,219,0.0,6.0,93,0.00,,,0.47,Wunderground v.1.15,2013-05-10 21:28:00,
2013-05-10 17:29:00,63.1,61.0,29.79,SW,220,0.0,6.0,93,0.00,,,0.47,Wunderground v.1.15,2013-05-10 21:29:00,
2013-05-10 17:30:00,63.2,61.1,29.79,SW,220,0.0,1.0,93,0.00,,,0.47,Wunderground v.1.15,2013-05-10 21:30:00,
2013-05-10 17:31:00,63.2,61.1,29.79,SW,223,0.0,1.0,93,0.00,,,0.47,Wunderground v.1.15,2013-05-10 21:31:00,
2013-05-10 17:33:00,63.2,61.1,29.79,SSW,208,3.0,4.0,93,0.00,,,0.47,Wunderground v.1.15,2013-05-10 21:33:00,
2013-05-10 17:34:00,63.2,61.1,29.79,SW,236,0.0,5.0,93,0.00,,,0.47,Wunderground v.1.15,2013-05-10 21:34:00,
2013-05-10 17:36:00,63.2,61.1,29.79,SW,216,3.0,6.0,93,0.00,,,0.47,Wunderground v.1.15,2013-05-10 21:36:00,
2013-05-10 17:38:00,63.2,61.1,29.78,SW,218,0.0,6.0,93,0.00,,,0.47,Wunderground v.1.15,2013-05-10 21:38:00,
2013-05-10 17:39:00,63.2,61.1,29.78,SW,218,0.0,6.0,93,0.00,,,0.47,Wunderground v.1.15,2013-05-10 21:39:00,
2013-05-10 17:41:00,63.4,61.3,29.78,SW,218,0.0,1.0,93,0.00,,,0.47,Wunderground v.1.15,2013-05-10 21:41:00,
2013-05-10 17:42:00,63.4,61.3,29.78,SW,233,0.0,4.0,93,0.00,,,0.47,Wunderground v.1.15,2013-05-10 21:42:00,
2013-05-10 17:43:00,63.4,61.3,29.78,SSW,210,0.0,4.0,93,0.00,,,0.47,Wunderground v.1.15,2013-05-10 21:43:00,
2013-05-10 17:44:00,63.4,61.3,29.78,SW,225,0.0,4.0,93,0.00,,,0.47,Wunderground v.1.15,2013-05-10 21:44:00,
2013-05-10 17:46:00,63.4,61.3,29.78,SSW,213,0.0,4.0,93,0.00,,,0.47,Wunderground v.1.15,2013-05-10 21:46:00,
2013-05-10 17:47:00,63.4,61.3,29.78,SW,221,3.0,4.0,93,0.00,,,0.47,Wunderground v.1.15,2013-05-10 21:47:00,
2013-05-10 17:48:00,63.4,61.3,29.78,SW,221,0.0,4.0,93,0.00,,,0.48,Wunderground v.1.15,2013-05-10 21:48:00,
2013-05-10 17:49:00,63.4,61.3,29.79,SW,227,0.0,4.0,93,0.00,,,0.48,Wunderground v.1.15,2013-05-10 21:49:00,
2013-05-10 17:51:00,63.4,61.3,29.79,SW,221,0.0,2.0,93,0.00,,,0.48,Wunderground v.1.15,2013-05-10 21:51:00,
2013-05-10 17:52:00,63.4,61.3,29.78,SW,227,0.0,2.0,93,0.00,,,0.48,Wunderground v.1.15,2013-05-10 21:52:00,
2013-05-10 17:53:00,63.4,61.3,29.79,SW,231,0.0,6.0,93,0.00,,,0.48,Wunderground v.1.15,2013-05-10 21:53:00,
2013-05-10 17:54:00,63.3,61.2,29.78,SW,231,0.0,6.0,93,0.00,,,0.48,Wunderground v.1.15,2013-05-10 21:54:00,
2013-05-10 17:56:00,63.3,61.2,29.78,West,263,0.0,6.0,93,0.00,,,0.48,Wunderground v.1.15,2013-05-10 21:56:00,
2013-05-10 17:57:00,63.3,61.2,29.78,SW,235,0.0,6.0,93,0.00,,,0.48,Wunderground v.1.15,2013-05-10 21:57:00,
2013-05-10 17:58:00,63.4,61.3,29.78,SW,224,0.0,6.0,93,0.00,,,0.48,Wunderground v.1.15,2013-05-10 21:58:00,
2013-05-10 17:59:00,63.4,61.3,29.78,WSW,244,2.0,6.0,93,0.00,,,0.48,Wunderground v.1.15,2013-05-10 21:59:00,
2013-05-10 18:03:00,63.4,61.3,29.78,SW,227,5.0,5.0,93,0.00,,,0.48,Wunderground v.1.15,2013-05-10 22:03:00,
2013-05-10 18:04:00,63.4,61.3,29.78,WSW,240,2.0,5.0,93,0.00,,,0.48,Wunderground v.1.15,2013-05-10 22:04:00,
2013-05-10 18:08:00,63.2,61.1,29.78,SW,231,4.0,5.0,93,0.00,,,0.48,Wunderground v.1.15,2013-05-10 22:08:00,
2013-05-10 18:09:00,63.2,61.1,29.78,South,191,4.0,5.0,93,0.00,,,0.48,Wunderground v.1.15,2013-05-10 22:09:00,
2013-05-10 18:13:00,63.1,61.0,29.78,SW,218,3.0,6.0,93,0.00,,,0.48,Wunderground v.1.15,2013-05-10 22:13:00,
2013-05-10 18:14:00,63.1,61.0,29.78,SW,218,0.0,6.0,93,0.00,,,0.48,Wunderground v.1.15,2013-05-10 22:14:00,
2013-05-10 18:18:00,63.1,61.0,29.78,SSW,208,1.0,6.0,93,0.00,,,0.48,Wunderground v.1.15,2013-05-10 22:18:00,
2013-05-10 18:19:00,63.1,61.0,29.78,SSW,208,0.0,6.0,93,0.00,,,0.48,Wunderground v.1.15,2013-05-10 22:19:00,
2013-05-10 18:20:00,63.2,61.1,29.78,SSW,208,0.0,1.0,93,0.00,,,0.48,Wunderground v.1.15,2013-05-10 22:20:00,
2013-05-10 18:24:00,63.2,61.1,29.78,SSW,211,1.0,1.0,93,0.00,,,0.48,Wunderground v.1.15,2013-05-10 22:24:00,
2013-05-10 18:25:00,63.2,61.1,29.78,WSW,242,2.0,2.0,93,0.00,,,0.48,Wunderground v.1.15,2013-05-10 22:25:00,
2013-05-10 18:29:00,63.1,61.0,29.78,SW,225,0.0,9.0,93,0.00,,,0.48,Wunderground v.1.15,2013-05-10 22:29:00,
2013-05-10 18:30:00,63.1,61.0,29.78,SW,231,0.0,2.0,93,0.00,,,0.48,Wunderground v.1.15,2013-05-10 22:30:00,
2013-05-10 18:34:00,62.9,60.5,29.78,SW,232,1.0,6.0,92,0.00,,,0.48,Wunderground v.1.15,2013-05-10 22:34:00,
2013-05-10 18:35:00,62.9,60.5,29.77,SW,233,3.0,6.0,92,0.00,,,0.48,Wunderground v.1.15,2013-05-10 22:35:00,
2013-05-10 18:39:00,62.9,60.8,29.77,SW,219,1.0,6.0,93,0.00,,,0.48,Wunderground v.1.15,2013-05-10 22:39:00,
2013-05-10 18:40:00,62.9,60.8,29.78,SSW,209,2.0,5.0,93,0.00,,,0.48,Wunderground v.1.15,2013-05-10 22:40:00,
2013-05-10 18:44:00,62.8,60.7,29.78,SW,230,1.0,5.0,93,0.00,,,0.48,Wunderground v.1.15,2013-05-10 22:44:00,
2013-05-10 18:45:00,62.8,60.7,29.78,SSW,206,4.0,5.0,93,0.00,,,0.48,Wunderground v.1.15,2013-05-10 22:45:00,
2013-05-10 18:49:00,62.7,60.6,29.78,South,181,2.0,7.0,93,0.00,,,0.48,Wunderground v.1.15,2013-05-10 22:49:00,
2013-05-10 18:50:00,62.7,60.6,29.78,SW,229,5.0,5.0,93,0.00,,,0.48,Wunderground v.1.15,2013-05-10 22:50:00,
2013-05-10 18:55:00,62.5,60.4,29.78,SW,235,4.0,8.0,93,0.00,,,0.48,Wunderground v.1.15,2013-05-10 22:55:00,
2013-05-10 19:00:00,62.3,59.9,29.78,SW,235,0.0,2.0,92,0.00,,,0.49,Wunderground v.1.15,2013-05-10 23:00:00,
2013-05-10 19:05:00,62.1,59.7,29.78,WSW,243,2.0,9.0,92,0.00,,,0.49,Wunderground v.1.15,2013-05-10 23:05:00,
2013-05-10 19:06:00,62.1,59.7,29.78,SSW,213,3.0,9.0,92,0.00,,,0.49,Wunderground v.1.15,2013-05-10 23:06:00,
2013-05-10 19:10:00,62.0,59.6,29.77,SW,222,3.0,5.0,92,0.00,,,0.49,Wunderground v.1.15,2013-05-10 23:10:00,
2013-05-10 19:11:00,62.0,59.6,29.77,SSW,205,2.0,5.0,92,0.00,,,0.49,Wunderground v.1.15,2013-05-10 23:11:00,
2013-05-10 19:15:00,62.0,60.0,29.77,SW,229,0.0,7.0,93,0.04,,,0.50,Wunderground v.1.15,2013-05-10 23:15:00,
2013-05-10 19:16:00,62.0,60.0,29.78,SW,229,0.0,7.0,93,0.04,,,0.50,Wunderground v.1.15,2013-05-10 23:16:00,
2013-05-10 19:20:00,62.0,60.0,29.78,SSW,198,0.0,1.0,93,0.04,,,0.50,Wunderground v.1.15,2013-05-10 23:20:00,
2013-05-10 19:21:00,62.0,60.0,29.78,SSW,198,0.0,1.0,93,0.04,,,0.50,Wunderground v.1.15,2013-05-10 23:21:00,
2013-05-10 19:25:00,62.1,60.1,29.78,SW,232,0.0,7.0,93,0.04,,,0.50,Wunderground v.1.15,2013-05-10 23:25:00,
2013-05-10 19:26:00,62.1,60.1,29.78,SW,232,0.0,7.0,93,0.04,,,0.50,Wunderground v.1.15,2013-05-10 23:26:00,
2013-05-10 19:27:00,62.1,60.1,29.78,SW,229,0.0,7.0,93,0.04,,,0.50,Wunderground v.1.15,2013-05-10 23:27:00,
2013-05-10 19:30:00,62.1,60.1,29.77,WSW,247,0.0,1.0,93,0.00,,,0.50,Wunderground v.1.15,2013-05-10 23:30:00,
2013-05-10 19:31:00,62.1,60.1,29.78,WSW,247,0.0,1.0,93,0.00,,,0.50,Wunderground v.1.15,2013-05-10 23:31:00,
2013-05-10 19:32:00,62.1,60.1,29.78,WSW,247,0.0,1.0,93,0.00,,,0.50,Wunderground v.1.15,2013-05-10 23:32:00,
2013-05-10 19:36:00,62.1,60.1,29.78,SSW,206,2.0,5.0,93,0.00,,,0.50,Wunderground v.1.15,2013-05-10 23:36:00,
2013-05-10 19:37:00,62.1,60.1,29.78,SW,223,0.0,5.0,93,0.00,,,0.50,Wunderground v.1.15,2013-05-10 23:37:00,
2013-05-10 19:41:00,62.2,60.2,29.77,SW,223,0.0,1.0,93,0.00,,,0.50,Wunderground v.1.15,2013-05-10 23:41:00,
2013-05-10 19:42:00,62.2,60.2,29.77,SW,223,0.0,1.0,93,0.00,,,0.50,Wunderground v.1.15,2013-05-10 23:42:00,
2013-05-10 19:43:00,62.2,60.2,29.77,SW,231,5.0,5.0,93,0.00,,,0.50,Wunderground v.1.15,2013-05-10 23:43:00,
2013-05-10 19:46:00,62.2,60.2,29.78,SW,235,2.0,8.0,93,0.00,,,0.50,Wunderground v.1.15,2013-05-10 23:46:00,
2013-05-10 19:47:00,62.2,60.2,29.78,SW,235,0.0,8.0,93,0.00,,,0.50,Wunderground v.1.15,2013-05-10 23:47:00,
2013-05-10 19:48:00,62.2,60.2,29.78,SW,235,0.0,8.0,93,0.00,,,0.50,Wunderground v.1.15,2013-05-10 23:48:00,
2013-05-10 19:51:00,62.3,60.2,29.78,SW,219,0.0,3.0,93,0.00,,,0.50,Wunderground v.1.15,2013-05-10 23:51:00,
2013-05-10 19:52:00,62.3,60.2,29.78,SW,232,7.0,7.0,93,0.00,,,0.50,Wunderground v.1.15,2013-05-10 23:52:00,
2013-05-10 19:53:00,62.3,60.2,29.78,SW,226,4.0,8.0,93,0.00,,,0.50,Wunderground v.1.15,2013-05-10 23:53:00,
2013-05-10 19:57:00,62.3,60.2,29.79,SSW,213,5.0,8.0,93,0.00,,,0.50,Wunderground v.1.15,2013-05-10 23:57:00,
2013-05-10 19:58:00,62.3,60.2,29.79,SW,223,0.0,8.0,93,0.00,,,0.50,Wunderground v.1.15,2013-05-10 23:58:00,
2013-05-10 20:02:00,62.3,60.2,29.79,SW,225,3.0,7.0,93,0.00,,,0.50,Wunderground v.1.15,2013-05-11 00:02:00,
2013-05-10 20:03:00,62.3,60.2,29.79,SW,216,0.0,7.0,93,0.00,,,0.50,Wunderground v.1.15,2013-05-11 00:03:00,
2013-05-10 20:07:00,62.3,60.2,29.79,SW,215,1.0,7.0,93,0.00,,,0.50,Wunderground v.1.15,2013-05-11 00:07:00,
2013-05-10 20:08:00,62.3,60.2,29.79,SW,219,1.0,7.0,93,0.00,,,0.50,Wunderground v.1.15,2013-05-11 00:08:00,
2013-05-10 20:09:00,62.3,60.2,29.79,SW,219,0.0,7.0,93,0.00,,,0.50,Wunderground v.1.15,2013-05-11 00:09:00,
2013-05-10 20:13:00,62.3,60.2,29.80,SSW,197,0.0,4.0,93,0.00,,,0.50,Wunderground v.1.15,2013-05-11 00:13:00,
2013-05-10 20:14:00,62.3,60.2,29.80,SW,220,0.0,4.0,93,0.00,,,0.50,Wunderground v.1.15,2013-05-11 00:14:00,
2013-05-10 20:18:00,62.4,60.3,29.80,SW,223,2.0,4.0,93,0.00,,,0.50,Wunderground v.1.15,2013-05-11 00:18:00,
2013-05-10 20:19:00,62.4,60.3,29.79,SW,223,0.0,4.0,93,0.00,,,0.50,Wunderground v.1.15,2013-05-11 00:19:00,
2013-05-10 20:20:00,62.4,60.3,29.80,SW,223,0.0,0.0,93,0.00,,,0.50,Wunderground v.1.15,2013-05-11 00:20:00,
2013-05-10 20:23:00,62.4,60.3,29.80,SW,223,0.0,2.0,93,0.00,,,0.50,Wunderground v.1.15,2013-05-11 00:23:00,
2013-05-10 20:24:00,62.3,60.2,29.80,SW,226,1.0,2.0,93,0.00,,,0.50,Wunderground v.1.15,2013-05-11 00:24:00,
2013-05-10 20:25:00,62.4,60.3,29.80,SW,226,0.0,2.0,93,0.00,,,0.50,Wunderground v.1.15,2013-05-11 00:25:00,
2013-05-10 20:28:00,62.4,60.3,29.80,WNW,283,0.0,4.0,93,0.00,,,0.50,Wunderground v.1.15,2013-05-11 00:28:00,
2013-05-10 20:29:00,62.3,60.2,29.80,WNW,283,0.0,4.0,93,0.00,,,0.50,Wunderground v.1.15,2013-05-11 00:29:00,
2013-05-10 20:30:00,62.3,60.2,29.80,SW,229,0.0,0.0,93,0.00,,,0.50,Wunderground v.1.15,2013-05-11 00:30:00,
2013-05-10 20:34:00,62.3,60.2,29.80,WSW,240,0.0,1.0,93,0.00,,,0.50,Wunderground v.1.15,2013-05-11 00:34:00,
2013-05-10 20:36:00,62.3,60.2,29.80,WSW,238,0.0,1.0,93,0.00,,,0.50,Wunderground v.1.15,2013-05-11 00:36:00,
2013-05-10 20:39:00,62.3,60.2,29.80,WSW,238,0.0,1.0,93,0.00,,,0.50,Wunderground v.1.15,2013-05-11 00:39:00,
2013-05-10 20:41:00,62.3,60.2,29.80,SW,236,0.0,0.0,93,0.00,,,0.50,Wunderground v.1.15,2013-05-11 00:41:00,
2013-05-10 20:44:00,62.3,60.2,29.80,SW,224,0.0,4.0,93,0.00,,,0.50,Wunderground v.1.15,2013-05-11 00:44:00,
2013-05-10 20:46:00,62.3,60.2,29.80,SW,224,0.0,4.0,93,0.00,,,0.50,Wunderground v.1.15,2013-05-11 00:46:00,
2013-05-10 20:49:00,62.3,60.2,29.79,SW,224,0.0,4.0,93,0.00,,,0.50,Wunderground v.1.15,2013-05-11 00:49:00,
2013-05-10 20:50:00,62.3,60.2,29.79,SW,224,4.0,4.0,93,0.00,,,0.50,Wunderground v.1.15,2013-05-11 00:50:00,
2013-05-10 20:51:00,62.3,60.2,29.80,SW,224,0.0,5.0,93,0.00,,,0.50,Wunderground v.1.15,2013-05-11 00:51:00,
2013-05-10 20:54:00,62.3,60.2,29.80,WSW,242,0.0,5.0,93,0.00,,,0.50,Wunderground v.1.15,2013-05-11 00:54:00,
2013-05-10 20:55:00,62.3,60.2,29.80,WSW,246,0.0,5.0,93,0.00,,,0.50,Wunderground v.1.15,2013-05-11 00:55:00,
2013-05-10 20:56:00,62.3,60.2,29.80,West,275,0.0,5.0,93,0.00,,,0.50,Wunderground v.1.15,2013-05-11 00:56:00,
2013-05-10 20:59:00,62.3,60.2,29.80,WSW,238,0.0,5.0,93,0.00,,,0.50,Wunderground v.1.15,2013-05-11 00:59:00,
2013-05-10 21:00:00,62.3,60.2,29.80,WSW,238,0.0,0.0,93,0.00,,,0.50,Wunderground v.1.15,2013-05-11 01:00:00,
2013-05-10 21:01:00,62.3,60.2,29.80,NW,304,0.0,2.0,93,0.00,,,0.50,Wunderground v.1.15,2013-05-11 01:01:00,
2013-05-10 21:04:00,62.3,60.2,29.80,WNW,288,0.0,2.0,93,0.00,,,0.50,Wunderground v.1.15,2013-05-11 01:04:00,
2013-05-10 21:05:00,62.3,60.2,29.80,WNW,288,0.0,2.0,93,0.00,,,0.50,Wunderground v.1.15,2013-05-11 01:05:00,
2013-05-10 21:06:00,62.3,60.2,29.80,WNW,288,0.0,2.0,93,0.00,,,0.50,Wunderground v.1.15,2013-05-11 01:06:00,
2013-05-10 21:09:00,62.2,60.2,29.80,WNW,288,0.0,2.0,93,0.00,,,0.50,Wunderground v.1.15,2013-05-11 01:09:00,
2013-05-10 21:10:00,62.2,60.2,29.80,WNW,288,0.0,0.0,93,0.00,,,0.50,Wunderground v.1.15,2013-05-11 01:10:00,
2013-05-10 21:11:00,62.2,60.2,29.80,WNW,288,0.0,0.0,93,0.00,,,0.50,Wunderground v.1.15,2013-05-11 01:11:00,
2013-05-10 21:14:00,62.1,60.1,29.80,WNW,288,0.0,0.0,93,0.00,,,0.50,Wunderground v.1.15,2013-05-11 01:14:00,
2013-05-10 21:15:00,62.1,60.1,29.80,WNW,288,0.0,0.0,93,0.00,,,0.50,Wunderground v.1.15,2013-05-11 01:15:00,
2013-05-10 21:16:00,62.1,60.1,29.80,WNW,288,0.0,0.0,93,0.00,,,0.50,Wunderground v.1.15,2013-05-11 01:16:00,
2013-05-10 21:20:00,62.0,60.0,29.80,WNW,288,0.0,0.0,93,0.00,,,0.50,Wunderground v.1.15,2013-05-11 01:20:00,
2013-05-10 21:21:00,62.0,60.0,29.80,WNW,288,0.0,0.0,93,0.00,,,0.50,Wunderground v.1.15,2013-05-11 01:21:00,
2013-05-10 21:22:00,62.0,60.0,29.80,WNW,288,0.0,0.0,93,0.00,,,0.50,Wunderground v.1.15,2013-05-11 01:22:00,
2013-05-10 21:25:00,62.0,60.0,29.80,WNW,288,0.0,0.0,93,0.00,,,0.50,Wunderground v.1.15,2013-05-11 01:25:00,
2013-05-10 21:26:00,62.0,60.0,29.80,WNW,288,0.0,0.0,93,0.00,,,0.50,Wunderground v.1.15,2013-05-11 01:26:00,
2013-05-10 21:27:00,61.9,59.9,29.80,WNW,288,0.0,0.0,93,0.00,,,0.50,Wunderground v.1.15,2013-05-11 01:27:00,
2013-05-10 21:30:00,61.8,59.8,29.80,WNW,288,0.0,0.0,93,0.00,,,0.50,Wunderground v.1.15,2013-05-11 01:30:00,
2013-05-10 21:31:00,61.8,59.8,29.80,WNW,288,0.0,0.0,93,0.00,,,0.50,Wunderground v.1.15,2013-05-11 01:31:00,
2013-05-10 21:32:00,61.8,59.8,29.79,WNW,288,0.0,0.0,93,0.00,,,0.50,Wunderground v.1.15,2013-05-11 01:32:00,
2013-05-10 21:36:00,61.6,59.6,29.80,WNW,288,0.0,0.0,93,0.00,,,0.50,Wunderground v.1.15,2013-05-11 01:36:00,
2013-05-10 21:38:00,61.6,59.6,29.80,WNW,288,0.0,0.0,93,0.00,,,0.50,Wunderground v.1.15,2013-05-11 01:38:00,
2013-05-10 21:39:00,61.6,59.6,29.80,WNW,288,0.0,0.0,93,0.00,,,0.50,Wunderground v.1.15,2013-05-11 01:39:00,
2013-05-10 21:41:00,61.7,59.7,29.80,WNW,288,0.0,2.0,93,0.00,,,0.50,Wunderground v.1.15,2013-05-11 01:41:00,
2013-05-10 21:44:00,61.7,59.7,29.80,West,273,0.0,2.0,93,0.00,,,0.50,Wunderground v.1.15,2013-05-11 01:44:00,
2013-05-10 22:09:00,61.5,59.5,29.81,West,273,0.0,0.0,93,0.00,,,0.50,Wunderground v.1.15,2013-05-11 02:09:00,
2013-05-10 22:10:00,61.5,59.5,29.81,West,273,0.0,0.0,93,0.00,,,0.50,Wunderground v.1.15,2013-05-11 02:10:00,
2013-05-10 22:14:00,61.5,59.5,29.81,West,273,0.0,0.0,93,0.00,,,0.50,Wunderground v.1.15,2013-05-11 02:14:00,
2013-05-10 22:15:00,61.5,59.5,29.81,West,273,0.0,0.0,93,0.00,,,0.50,Wunderground v.1.15,2013-05-11 02:15:00,
2013-05-10 22:20:00,61.4,59.4,29.81,West,273,0.0,0.0,93,0.00,,,0.50,Wunderground v.1.15,2013-05-11 02:20:00,
2013-05-10 22:25:00,61.4,59.4,29.81,West,273,0.0,0.0,93,0.00,,,0.50,Wunderground v.1.15,2013-05-11 02:25:00,
2013-05-10 22:30:00,61.4,59.4,29.81,West,273,0.0,0.0,93,0.00,,,0.50,Wunderground v.1.15,2013-05-11 02:30:00,
2013-05-10 22:35:00,61.5,59.5,29.81,West,273,0.0,0.0,93,0.00,,,0.50,Wunderground v.1.15,2013-05-11 02:35:00,
2013-05-10 22:40:00,61.6,59.6,29.82,West,273,0.0,0.0,93,0.00,,,0.50,Wunderground v.1.15,2013-05-11 02:40:00,
2013-05-10 22:45:00,61.7,59.7,29.82,West,273,0.0,0.0,93,0.00,,,0.50,Wunderground v.1.15,2013-05-11 02:45:00,
2013-05-10 22:46:00,61.7,59.7,29.82,West,273,0.0,0.0,93,0.00,,,0.50,Wunderground v.1.15,2013-05-11 02:46:00,
2013-05-10 22:50:00,61.8,59.8,29.82,West,273,0.0,0.0,93,0.00,,,0.50,Wunderground v.1.15,2013-05-11 02:50:00,
2013-05-10 22:51:00,61.8,59.8,29.82,West,273,0.0,0.0,93,0.00,,,0.50,Wunderground v.1.15,2013-05-11 02:51:00,
2013-05-10 22:55:00,61.9,59.9,29.82,West,273,0.0,1.0,93,0.00,,,0.50,Wunderground v.1.15,2013-05-11 02:55:00,
2013-05-10 22:56:00,61.9,59.9,29.82,West,273,0.0,1.0,93,0.00,,,0.50,Wunderground v.1.15,2013-05-11 02:56:00,
2013-05-10 23:01:00,62.0,60.0,29.82,West,273,0.0,0.0,93,0.00,,,0.50,Wunderground v.1.15,2013-05-11 03:01:00,
2013-05-10 23:02:00,62.0,60.0,29.81,West,273,0.0,0.0,93,0.00,,,0.50,Wunderground v.1.15,2013-05-11 03:02:00,
2013-05-10 23:06:00,62.0,60.0,29.81,West,273,0.0,0.0,93,0.00,,,0.50,Wunderground v.1.15,2013-05-11 03:06:00,
2013-05-10 23:07:00,62.0,60.0,29.81,West,273,0.0,0.0,93,0.00,,,0.50,Wunderground v.1.15,2013-05-11 03:07:00,
2013-05-10 23:11:00,62.1,60.1,29.81,West,273,0.0,0.0,93,0.00,,,0.50,Wunderground v.1.15,2013-05-11 03:11:00,
2013-05-10 23:12:00,62.1,60.1,29.81,West,273,0.0,0.0,93,0.00,,,0.50,Wunderground v.1.15,2013-05-11 03:12:00,
2013-05-10 23:13:00,62.0,60.0,29.81,West,273,0.0,0.0,93,0.00,,,0.50,Wunderground v.1.15,2013-05-11 03:13:00,
2013-05-10 23:16:00,62.1,60.1,29.81,West,273,0.0,3.0,93,0.00,,,0.50,Wunderground v.1.15,2013-05-11 03:16:00,
2013-05-10 23:17:00,62.1,60.1,29.81,West,273,0.0,3.0,93,0.00,,,0.50,Wunderground v.1.15,2013-05-11 03:17:00,
2013-05-10 23:18:00,62.1,60.1,29.81,WSW,258,3.0,3.0,93,0.00,,,0.50,Wunderground v.1.15,2013-05-11 03:18:00,
2013-05-10 23:21:00,62.1,60.1,29.81,WSW,240,0.0,8.0,93,0.00,,,0.50,Wunderground v.1.15,2013-05-11 03:21:00,
2013-05-10 23:22:00,62.1,60.1,29.81,SW,234,2.0,8.0,93,0.00,,,0.50,Wunderground v.1.15,2013-05-11 03:22:00,
2013-05-10 23:23:00,62.2,60.2,29.81,SW,234,3.0,8.0,93,0.00,,,0.50,Wunderground v.1.15,2013-05-11 03:23:00,
2013-05-10 23:26:00,62.1,60.1,29.81,SW,229,0.0,8.0,93,0.00,,,0.50,Wunderground v.1.15,2013-05-11 03:26:00,
2013-05-10 23:27:00,62.1,60.1,29.81,SW,229,0.0,8.0,93,0.00,,,0.50,Wunderground v.1.15,2013-05-11 03:27:00,
2013-05-10 23:28:00,62.1,60.1,29.81,SW,231,0.0,8.0,93,0.00,,,0.50,Wunderground v.1.15,2013-05-11 03:28:00,
2013-05-10 23:29:00,62.1,60.1,29.81,SW,231,0.0,8.0,93,0.00,,,0.50,Wunderground v.1.15,2013-05-11 03:29:00,
2013-05-10 23:31:00,62.1,60.1,29.81,SW,217,0.0,1.0,93,0.00,,,0.50,Wunderground v.1.15,2013-05-11 03:31:00,
2013-05-10 23:32:00,62.0,60.0,29.81,SW,226,0.0,1.0,93,0.00,,,0.50,Wunderground v.1.15,2013-05-11 03:32:00,
2013-05-10 23:33:00,62.1,60.1,29.81,WSW,237,0.0,1.0,93,0.00,,,0.50,Wunderground v.1.15,2013-05-11 03:33:00,
2013-05-10 23:34:00,62.0,60.0,29.81,WSW,237,0.0,1.0,93,0.00,,,0.50,Wunderground v.1.15,2013-05-11 03:34:00,
2013-05-10 23:36:00,62.0,60.0,29.81,WSW,237,0.0,1.0,93,0.00,,,0.50,Wunderground v.1.15,2013-05-11 03:36:00,
2013-05-10 23:37:00,62.0,60.0,29.81,WSW,237,0.0,1.0,93,0.00,,,0.50,Wunderground v.1.15,2013-05-11 03:37:00,
2013-05-10 23:38:00,62.0,60.0,29.81,SW,234,1.0,5.0,93,0.00,,,0.50,Wunderground v.1.15,2013-05-11 03:38:00,
2013-05-10 23:39:00,62.0,60.0,29.81,SW,234,0.0,5.0,93,0.00,,,0.50,Wunderground v.1.15,2013-05-11 03:39:00,
2013-05-10 23:41:00,62.0,60.0,29.81,SW,235,0.0,0.0,93,0.00,,,0.50,Wunderground v.1.15,2013-05-11 03:41:00,
2013-05-10 23:42:00,62.0,60.0,29.81,SW,235,0.0,0.0,93,0.00,,,0.50,Wunderground v.1.15,2013-05-11 03:42:00,
2013-05-10 23:43:00,62.0,60.0,29.81,SW,235,0.0,0.0,93,0.00,,,0.50,Wunderground v.1.15,2013-05-11 03:43:00,
2013-05-10 23:44:00,62.0,60.0,29.81,SW,235,0.0,0.0,93,0.00,,,0.50,Wunderground v.1.15,2013-05-11 03:44:00,
2013-05-10 23:46:00,62.0,60.0,29.81,SW,235,0.0,0.0,93,0.00,,,0.50,Wunderground v.1.15,2013-05-11 03:46:00,
2013-05-10 23:47:00,61.9,59.9,29.81,SW,235,0.0,0.0,93,0.00,,,0.50,Wunderground v.1.15,2013-05-11 03:47:00,
2013-05-10 23:48:00,61.9,59.9,29.81,SW,235,0.0,0.0,93,0.00,,,0.50,Wunderground v.1.15,2013-05-11 03:48:00,
2013-05-10 23:49:00,61.9,59.9,29.81,SW,235,0.0,0.0,93,0.00,,,0.50,Wunderground v.1.15,2013-05-11 03:49:00,
2013-05-10 23:51:00,61.9,59.9,29.81,SW,235,0.0,0.0,93,0.00,,,0.50,Wunderground v.1.15,2013-05-11 03:51:00,
2013-05-10 23:52:00,61.9,59.9,29.81,SW,235,0.0,0.0,93,0.00,,,0.50,Wunderground v.1.15,2013-05-11 03:52:00,
2013-05-10 23:53:00,61.9,59.9,29.81,SW,235,0.0,0.0,93,0.00,,,0.50,Wunderground v.1.15,2013-05-11 03:53:00,
2013-05-10 23:55:00,61.9,59.9,29.81,SW,235,0.0,0.0,93,0.00,,,0.50,Wunderground v.1.15,2013-05-11 03:55:00,
2013-05-10 23:57:00,61.9,59.9,29.81,SW,235,0.0,0.0,93,0.00,,,0.50,Wunderground v.1.15,2013-05-11 03:57:00,
2013-05-10 23:58:00,61.9,59.9,29.81,SW,235,0.0,0.0,93,0.00,,,0.50,Wunderground v.1.15,2013-05-11 03:58:00,